Time,TemperatureF,DewpointF,PressureIn,WindDirection,WindDirectionDegrees,WindSpeedMPH,WindSpeedGustMPH,Humidity,HourlyPrecipIn,Conditions,Clouds,dailyrainin,SoftwareType,DateUTC
2013-06-18 00:00:00,58.3,52.6,30.02,ESE,113,1.1,3.6,81,0.00,,,0.00,WUHU216HW,2013-06-18 07:00:00,
2013-06-18 00:02:00,58.1,52.4,30.02,ESE,113,2.0,3.6,81,0.00,,,0.00,WUHU216HW,2013-06-18 07:02:00,
2013-06-18 00:04:00,58.1,52.4,30.02,NE,45,1.3,3.6,81,0.00,,,0.00,WUHU216HW,2013-06-18 07:04:00,
2013-06-18 00:05:00,58.1,52.4,30.02,ESE,113,2.2,3.6,81,0.00,,,0.00,WUHU216HW,2013-06-18 07:05:00,
2013-06-18 00:07:00,58.1,52.4,30.02,ENE,68,1.1,3.1,81,0.00,,,0.00,WUHU216HW,2013-06-18 07:07:00,
2013-06-18 00:10:00,58.1,52.4,30.02,SSE,158,1.6,4.0,81,0.00,,,0.00,WUHU216HW,2013-06-18 07:10:00,
2013-06-18 00:12:00,58.1,52.4,30.02,ENE,68,1.1,4.0,81,0.00,,,0.00,WUHU216HW,2013-06-18 07:12:00,
2013-06-18 00:13:00,58.0,52.2,30.02,East,90,1.8,4.0,81,0.00,,,0.00,WUHU216HW,2013-06-18 07:13:00,
2013-06-18 00:15:00,58.0,52.2,30.02,SE,135,0.4,4.0,81,0.00,,,0.00,WUHU216HW,2013-06-18 07:15:00,
2013-06-18 00:17:00,58.0,52.2,30.02,ESE,113,2.5,4.0,81,0.00,,,0.00,WUHU216HW,2013-06-18 07:17:00,
2013-06-18 00:18:00,58.0,52.2,30.02,NE,45,2.9,4.0,81,0.00,,,0.00,WUHU216HW,2013-06-18 07:18:00,
2013-06-18 00:20:00,58.0,52.5,30.02,SE,135,2.5,2.9,82,0.00,,,0.00,WUHU216HW,2013-06-18 07:20:00,
2013-06-18 00:22:00,58.0,52.5,30.02,ESE,113,1.1,2.9,82,0.00,,,0.00,WUHU216HW,2013-06-18 07:22:00,
2013-06-18 00:23:00,58.0,52.5,30.02,East,90,1.1,2.9,82,0.00,,,0.00,WUHU216HW,2013-06-18 07:23:00,
2013-06-18 00:25:00,58.0,52.5,30.02,ESE,113,2.0,2.9,82,0.00,,,0.00,WUHU216HW,2013-06-18 07:25:00,
2013-06-18 00:27:00,58.0,52.5,30.02,ESE,113,1.3,2.9,82,0.00,,,0.00,WUHU216HW,2013-06-18 07:27:00,
2013-06-18 00:28:00,58.0,52.5,30.02,SE,135,2.7,2.7,82,0.00,,,0.00,WUHU216HW,2013-06-18 07:28:00,
2013-06-18 00:30:00,58.0,52.5,30.02,East,90,1.8,2.7,82,0.00,,,0.00,WUHU216HW,2013-06-18 07:30:00,
2013-06-18 00:32:00,58.0,52.5,30.02,ESE,113,2.0,2.7,82,0.00,,,0.00,WUHU216HW,2013-06-18 07:32:00,
2013-06-18 00:33:00,58.0,52.5,30.02,ESE,113,0.0,2.7,82,0.00,,,0.00,WUHU216HW,2013-06-18 07:33:00,
2013-06-18 00:35:00,58.0,52.5,30.02,SE,135,1.3,2.7,82,0.00,,,0.00,WUHU216HW,2013-06-18 07:35:00,
2013-06-18 00:37:00,58.0,52.5,30.02,ENE,68,0.9,2.7,82,0.00,,,0.00,WUHU216HW,2013-06-18 07:37:00,
2013-06-18 00:38:00,58.0,52.5,30.02,ESE,113,2.9,2.9,82,0.00,,,0.00,WUHU216HW,2013-06-18 07:38:00,
2013-06-18 00:40:00,57.8,52.7,30.02,ESE,113,1.8,3.4,83,0.00,,,0.00,WUHU216HW,2013-06-18 07:40:00,
2013-06-18 00:42:00,57.8,52.3,30.02,East,90,0.4,3.6,82,0.00,,,0.00,WUHU216HW,2013-06-18 07:42:00,
2013-06-18 00:43:00,57.8,52.7,30.02,East,90,0.4,3.6,83,0.00,,,0.00,WUHU216HW,2013-06-18 07:43:00,
2013-06-18 00:44:00,57.8,52.3,30.02,East,90,0.4,3.6,82,0.00,,,0.00,WUHU216HW,2013-06-18 07:44:00,
2013-06-18 00:45:00,57.8,52.3,30.02,ENE,68,0.2,3.6,82,0.00,,,0.00,WUHU216HW,2013-06-18 07:45:00,
2013-06-18 00:46:00,57.8,52.3,30.02,SE,135,0.4,3.6,82,0.00,,,0.00,WUHU216HW,2013-06-18 07:46:00,
2013-06-18 00:47:00,57.6,52.1,30.02,SE,135,1.8,3.6,82,0.00,,,0.00,WUHU216HW,2013-06-18 07:47:00,
2013-06-18 00:48:00,57.6,52.5,30.02,East,90,1.3,3.6,83,0.00,,,0.00,WUHU216HW,2013-06-18 07:48:00,
2013-06-18 00:49:00,57.6,52.5,30.02,SE,135,1.1,3.6,83,0.00,,,0.00,WUHU216HW,2013-06-18 07:49:00,
2013-06-18 00:50:00,57.6,52.5,30.02,ESE,113,1.1,3.6,83,0.00,,,0.00,WUHU216HW,2013-06-18 07:50:00,
2013-06-18 00:51:00,57.6,52.5,30.02,ENE,68,1.6,3.6,83,0.00,,,0.00,WUHU216HW,2013-06-18 07:51:00,
2013-06-18 00:52:00,57.8,52.7,30.02,East,90,1.3,2.5,83,0.00,,,0.00,WUHU216HW,2013-06-18 07:52:00,
2013-06-18 00:54:00,57.8,52.7,30.02,East,90,0.9,2.5,83,0.00,,,0.00,WUHU216HW,2013-06-18 07:54:00,
2013-06-18 00:56:00,57.8,52.7,30.02,East,90,1.1,2.5,83,0.00,,,0.00,WUHU216HW,2013-06-18 07:56:00,
2013-06-18 00:57:00,57.8,52.7,30.02,NE,45,0.7,2.5,83,0.00,,,0.00,WUHU216HW,2013-06-18 07:57:00,
2013-06-18 00:59:00,58.0,52.8,30.02,ENE,68,0.4,2.5,83,0.00,,,0.00,WUHU216HW,2013-06-18 07:59:00,
2013-06-18 01:01:00,58.0,52.8,30.02,East,90,1.1,3.4,83,0.00,,,0.00,WUHU216HW,2013-06-18 08:01:00,
2013-06-18 01:03:00,58.0,52.8,30.02,ESE,113,1.8,3.4,83,0.00,,,0.00,WUHU216HW,2013-06-18 08:03:00,
2013-06-18 01:04:00,58.0,52.8,30.02,North,0,1.1,3.4,83,0.00,,,0.00,WUHU216HW,2013-06-18 08:04:00,
2013-06-18 01:06:00,58.1,53.0,30.02,SE,135,0.7,3.4,83,0.00,,,0.00,WUHU216HW,2013-06-18 08:06:00,
2013-06-18 01:07:00,58.1,53.0,30.02,SSE,158,0.4,3.4,83,0.00,,,0.00,WUHU216HW,2013-06-18 08:07:00,
2013-06-18 01:08:00,58.1,53.0,30.02,ESE,113,1.1,3.4,83,0.00,,,0.00,WUHU216HW,2013-06-18 08:08:00,
2013-06-18 01:09:00,58.3,53.2,30.02,ESE,113,0.4,3.4,83,0.00,,,0.00,WUHU216HW,2013-06-18 08:09:00,
2013-06-18 01:11:00,58.3,53.2,30.02,ESE,113,1.8,1.8,83,0.00,,,0.00,WUHU216HW,2013-06-18 08:11:00,
2013-06-18 01:12:00,58.3,53.2,30.02,ESE,113,0.7,1.8,83,0.00,,,0.00,WUHU216HW,2013-06-18 08:12:00,
2013-06-18 01:13:00,58.3,53.2,30.02,East,90,1.6,1.8,83,0.00,,,0.00,WUHU216HW,2013-06-18 08:13:00,
2013-06-18 01:14:00,58.3,53.2,30.02,South,180,2.2,2.2,83,0.00,,,0.00,WUHU216HW,2013-06-18 08:14:00,
2013-06-18 01:15:00,58.3,52.8,30.02,South,180,2.2,2.2,82,0.00,,,0.00,WUHU216HW,2013-06-18 08:15:00,
2013-06-18 01:16:00,58.3,53.2,30.02,SE,135,2.2,2.2,83,0.00,,,0.00,WUHU216HW,2013-06-18 08:16:00,
2013-06-18 01:17:00,58.5,53.4,30.02,SE,135,0.9,2.2,83,0.00,,,0.00,WUHU216HW,2013-06-18 08:17:00,
2013-06-18 01:18:00,58.5,53.4,30.02,SE,135,2.5,2.5,83,0.00,,,0.00,WUHU216HW,2013-06-18 08:18:00,
2013-06-18 01:19:00,58.5,53.4,30.02,SE,135,1.8,2.5,83,0.00,,,0.00,WUHU216HW,2013-06-18 08:19:00,
2013-06-18 01:20:00,58.5,53.4,30.02,SE,135,1.8,2.5,83,0.00,,,0.00,WUHU216HW,2013-06-18 08:20:00,
2013-06-18 01:21:00,58.7,53.6,30.02,SSE,158,1.1,2.5,83,0.00,,,0.00,WUHU216HW,2013-06-18 08:21:00,
2013-06-18 01:22:00,58.7,53.6,30.02,East,90,0.4,2.5,83,0.00,,,0.00,WUHU216HW,2013-06-18 08:22:00,
2013-06-18 01:23:00,58.7,53.6,30.02,East,90,0.9,2.5,83,0.00,,,0.00,WUHU216HW,2013-06-18 08:23:00,
2013-06-18 01:25:00,58.7,53.6,30.02,East,90,0.0,2.5,83,0.00,,,0.00,WUHU216HW,2013-06-18 08:25:00,
2013-06-18 01:26:00,58.7,53.2,30.02,South,180,0.0,2.5,82,0.00,,,0.00,WUHU216HW,2013-06-18 08:26:00,
2013-06-18 01:28:00,58.7,53.2,30.02,ESE,113,1.8,2.5,82,0.00,,,0.00,WUHU216HW,2013-06-18 08:28:00,
2013-06-18 01:30:00,58.7,53.2,30.02,South,180,1.8,2.5,82,0.00,,,0.00,WUHU216HW,2013-06-18 08:30:00,
2013-06-18 01:31:00,58.7,53.2,30.02,SE,135,1.6,2.5,82,0.00,,,0.00,WUHU216HW,2013-06-18 08:31:00,
2013-06-18 01:33:00,58.9,53.1,30.02,SSW,203,1.6,2.5,81,0.00,,,0.00,WUHU216HW,2013-06-18 08:33:00,
2013-06-18 01:35:00,58.9,53.4,30.02,SSE,158,1.6,4.0,82,0.00,,,0.00,WUHU216HW,2013-06-18 08:35:00,
2013-06-18 01:36:00,58.9,53.4,30.02,SW,225,2.0,4.0,82,0.00,,,0.00,WUHU216HW,2013-06-18 08:36:00,
2013-06-18 01:37:00,58.9,53.4,30.02,NE,45,0.4,4.0,82,0.00,,,0.00,WUHU216HW,2013-06-18 08:37:00,
2013-06-18 01:38:00,59.0,53.6,30.02,SE,135,0.0,4.0,82,0.00,,,0.00,WUHU216HW,2013-06-18 08:38:00,
2013-06-18 01:39:00,59.0,53.6,30.02,SSE,158,0.7,4.0,82,0.00,,,0.00,WUHU216HW,2013-06-18 08:39:00,
2013-06-18 01:40:00,59.0,53.3,30.02,ESE,113,0.9,4.0,81,0.00,,,0.00,WUHU216HW,2013-06-18 08:40:00,
2013-06-18 01:41:00,59.0,53.3,30.02,ESE,113,0.9,4.0,81,0.00,,,0.00,WUHU216HW,2013-06-18 08:41:00,
2013-06-18 01:43:00,59.0,53.3,30.02,SE,135,1.3,4.0,81,0.00,,,0.00,WUHU216HW,2013-06-18 08:43:00,
2013-06-18 01:44:00,59.0,53.3,30.02,SE,135,0.4,4.0,81,0.00,,,0.00,WUHU216HW,2013-06-18 08:44:00,
2013-06-18 01:45:00,59.0,53.3,30.02,SE,135,0.0,2.2,81,0.00,,,0.00,WUHU216HW,2013-06-18 08:45:00,
2013-06-18 01:46:00,59.0,53.3,30.02,SE,135,0.0,2.2,81,0.00,,,0.00,WUHU216HW,2013-06-18 08:46:00,
2013-06-18 01:48:00,59.0,53.3,30.02,SSW,203,4.3,4.3,81,0.00,,,0.00,WUHU216HW,2013-06-18 08:48:00,
2013-06-18 01:49:00,59.0,53.6,30.02,NE,45,1.6,4.3,82,0.00,,,0.00,WUHU216HW,2013-06-18 08:49:00,
2013-06-18 01:50:00,59.0,53.3,30.02,East,90,0.0,4.3,81,0.00,,,0.00,WUHU216HW,2013-06-18 08:50:00,
2013-06-18 01:51:00,59.0,53.3,30.02,NW,315,0.4,4.3,81,0.00,,,0.00,WUHU216HW,2013-06-18 08:51:00,
2013-06-18 01:53:00,59.0,53.3,30.02,SSE,158,0.7,4.3,81,0.00,,,0.00,WUHU216HW,2013-06-18 08:53:00,
2013-06-18 01:54:00,59.2,53.7,30.01,SSE,158,6.9,6.9,82,0.00,,,0.00,WUHU216HW,2013-06-18 08:54:00,
2013-06-18 01:56:00,59.2,53.5,30.01,SE,135,1.8,6.9,81,0.00,,,0.00,WUHU216HW,2013-06-18 08:56:00,
2013-06-18 01:58:00,59.2,53.5,30.02,SSE,158,4.0,6.9,81,0.00,,,0.00,WUHU216HW,2013-06-18 08:58:00,
2013-06-18 01:59:00,59.2,53.5,30.02,SE,135,3.1,6.9,81,0.00,,,0.00,WUHU216HW,2013-06-18 08:59:00,
2013-06-18 02:01:00,59.2,53.7,30.01,SSE,158,2.2,7.2,82,0.00,,,0.00,WUHU216HW,2013-06-18 09:01:00,
2013-06-18 02:02:00,59.4,53.7,30.01,SSE,158,5.6,7.2,81,0.00,,,0.00,WUHU216HW,2013-06-18 09:02:00,
2013-06-18 02:03:00,59.4,53.7,30.01,South,180,6.9,9.8,81,0.00,,,0.00,WUHU216HW,2013-06-18 09:03:00,
2013-06-18 02:04:00,59.4,53.7,30.01,SSE,158,5.1,9.8,81,0.00,,,0.00,WUHU216HW,2013-06-18 09:04:00,
2013-06-18 02:05:00,59.4,53.7,30.01,SSE,158,3.1,9.8,81,0.00,,,0.00,WUHU216HW,2013-06-18 09:05:00,
2013-06-18 02:06:00,59.4,53.7,30.01,SE,135,3.6,9.8,81,0.00,,,0.00,WUHU216HW,2013-06-18 09:06:00,
2013-06-18 02:07:00,59.4,53.7,30.01,SE,135,1.8,9.8,81,0.00,,,0.00,WUHU216HW,2013-06-18 09:07:00,
2013-06-18 02:08:00,59.4,53.7,30.01,SSE,158,5.6,9.8,81,0.00,,,0.00,WUHU216HW,2013-06-18 09:08:00,
2013-06-18 02:09:00,59.4,53.7,30.01,SE,135,0.7,9.8,81,0.00,,,0.00,WUHU216HW,2013-06-18 09:09:00,
2013-06-18 02:10:00,59.4,53.7,30.01,SE,135,0.7,9.8,81,0.00,,,0.00,WUHU216HW,2013-06-18 09:10:00,
2013-06-18 02:11:00,59.4,53.7,30.01,East,90,1.1,9.8,81,0.00,,,0.00,WUHU216HW,2013-06-18 09:11:00,
2013-06-18 02:12:00,59.4,53.7,30.01,WSW,248,0.4,9.8,81,0.00,,,0.00,WUHU216HW,2013-06-18 09:12:00,
2013-06-18 02:14:00,59.2,53.5,30.01,ESE,113,1.1,6.9,81,0.00,,,0.00,WUHU216HW,2013-06-18 09:14:00,
2013-06-18 02:15:00,59.2,53.5,30.01,NNE,23,0.4,5.6,81,0.00,,,0.00,WUHU216HW,2013-06-18 09:15:00,
2013-06-18 02:17:00,59.2,53.5,30.01,SE,135,0.7,5.6,81,0.00,,,0.00,WUHU216HW,2013-06-18 09:17:00,
2013-06-18 02:20:00,59.0,53.3,30.01,East,90,0.7,4.0,81,0.00,,,0.00,WUHU216HW,2013-06-18 09:20:00,
2013-06-18 02:22:00,58.9,52.7,30.01,East,90,0.0,4.0,80,0.00,,,0.00,WUHU216HW,2013-06-18 09:22:00,
2013-06-18 02:25:00,58.7,52.6,30.01,ENE,68,0.0,2.7,80,0.00,,,0.00,WUHU216HW,2013-06-18 09:25:00,
2013-06-18 02:27:00,58.5,52.4,30.01,ESE,113,0.7,2.7,80,0.00,,,0.00,WUHU216HW,2013-06-18 09:27:00,
2013-06-18 02:30:00,58.3,52.2,30.01,ENE,68,0.4,1.1,80,0.00,,,0.00,WUHU216HW,2013-06-18 09:30:00,
2013-06-18 02:32:00,58.0,51.8,30.01,ESE,113,1.1,1.1,80,0.00,,,0.00,WUHU216HW,2013-06-18 09:32:00,
2013-06-18 02:35:00,57.8,51.7,30.01,ESE,113,0.9,2.0,80,0.00,,,0.00,WUHU216HW,2013-06-18 09:35:00,
2013-06-18 02:37:00,57.6,51.5,30.01,ENE,68,0.0,2.0,80,0.00,,,0.00,WUHU216HW,2013-06-18 09:37:00,
2013-06-18 02:40:00,57.4,51.7,30.01,East,90,1.8,2.0,81,0.00,,,0.00,WUHU216HW,2013-06-18 09:40:00,
2013-06-18 02:42:00,57.2,51.5,30.01,ENE,68,1.3,2.0,81,0.00,,,0.00,WUHU216HW,2013-06-18 09:42:00,
2013-06-18 02:45:00,57.2,51.5,30.01,ESE,113,1.3,2.0,81,0.00,,,0.00,WUHU216HW,2013-06-18 09:45:00,
2013-06-18 02:47:00,57.1,51.3,30.01,NE,45,0.9,2.0,81,0.00,,,0.00,WUHU216HW,2013-06-18 09:47:00,
2013-06-18 02:48:00,57.1,51.3,30.01,ENE,68,1.6,2.0,81,0.00,,,0.00,WUHU216HW,2013-06-18 09:48:00,
2013-06-18 02:50:00,56.9,51.1,30.01,ESE,113,0.7,2.0,81,0.00,,,0.00,WUHU216HW,2013-06-18 09:50:00,
2013-06-18 02:51:00,56.9,51.1,30.01,ESE,113,0.7,2.0,81,0.00,,,0.00,WUHU216HW,2013-06-18 09:51:00,
2013-06-18 02:53:00,56.9,51.1,30.01,ESE,113,0.7,2.0,81,0.00,,,0.00,WUHU216HW,2013-06-18 09:53:00,
2013-06-18 02:56:00,56.5,51.0,30.01,ENE,68,0.9,2.0,82,0.00,,,0.00,WUHU216HW,2013-06-18 09:56:00,
2013-06-18 02:58:00,56.5,50.8,30.01,ENE,68,0.0,2.0,81,0.00,,,0.00,WUHU216HW,2013-06-18 09:58:00,
2013-06-18 03:01:00,56.3,50.6,30.01,NNE,23,0.4,1.1,81,0.00,,,0.00,WUHU216HW,2013-06-18 10:01:00,
2013-06-18 03:03:00,56.2,50.4,30.01,NNE,23,0.0,1.1,81,0.00,,,0.00,WUHU216HW,2013-06-18 10:03:00,
2013-06-18 03:06:00,55.8,50.1,30.01,NE,45,1.1,1.6,81,0.00,,,0.00,WUHU216HW,2013-06-18 10:06:00,
2013-06-18 03:08:00,55.8,50.1,30.01,NNE,23,0.7,1.6,81,0.00,,,0.00,WUHU216HW,2013-06-18 10:08:00,
2013-06-18 03:11:00,55.8,50.3,30.01,NNE,23,1.6,1.8,82,0.00,,,0.00,WUHU216HW,2013-06-18 10:11:00,
2013-06-18 03:13:00,55.8,50.3,30.01,NNE,23,1.6,1.8,82,0.00,,,0.00,WUHU216HW,2013-06-18 10:13:00,
2013-06-18 03:16:00,55.6,50.1,30.01,NE,45,0.4,1.8,82,0.00,,,0.00,WUHU216HW,2013-06-18 10:16:00,
2013-06-18 03:17:00,55.6,50.1,30.01,NNE,23,1.1,1.8,82,0.00,,,0.00,WUHU216HW,2013-06-18 10:17:00,
2013-06-18 03:18:00,55.6,50.1,30.01,ENE,68,1.1,1.8,82,0.00,,,0.00,WUHU216HW,2013-06-18 10:18:00,
2013-06-18 03:21:00,55.4,50.0,30.01,ENE,68,1.1,1.8,82,0.00,,,0.00,WUHU216HW,2013-06-18 10:21:00,
2013-06-18 03:22:00,55.4,50.0,30.01,ENE,68,1.3,1.8,82,0.00,,,0.00,WUHU216HW,2013-06-18 10:22:00,
2013-06-18 03:23:00,55.4,50.0,30.01,ENE,68,1.1,1.8,82,0.00,,,0.00,WUHU216HW,2013-06-18 10:23:00,
2013-06-18 03:24:00,55.4,50.0,30.01,ENE,68,1.1,1.8,82,0.00,,,0.00,WUHU216HW,2013-06-18 10:24:00,
2013-06-18 03:26:00,55.4,50.0,30.01,NE,45,0.0,1.6,82,0.00,,,0.00,WUHU216HW,2013-06-18 10:26:00,
2013-06-18 03:27:00,55.3,49.8,30.01,ENE,68,0.7,1.3,82,0.00,,,0.00,WUHU216HW,2013-06-18 10:27:00,
2013-06-18 03:28:00,55.3,49.8,30.01,ENE,68,0.4,1.3,82,0.00,,,0.00,WUHU216HW,2013-06-18 10:28:00,
2013-06-18 03:29:00,55.3,49.8,30.01,ENE,68,0.4,1.3,82,0.00,,,0.00,WUHU216HW,2013-06-18 10:29:00,
2013-06-18 03:31:00,55.3,49.8,30.01,ENE,68,0.7,1.3,82,0.00,,,0.00,WUHU216HW,2013-06-18 10:31:00,
2013-06-18 03:32:00,55.3,49.8,30.01,ENE,68,0.7,1.3,82,0.00,,,0.00,WUHU216HW,2013-06-18 10:32:00,
2013-06-18 03:34:00,55.1,49.7,30.01,ENE,68,0.0,1.1,82,0.00,,,0.00,WUHU216HW,2013-06-18 10:34:00,
2013-06-18 03:37:00,55.1,50.0,30.01,ENE,68,0.4,1.1,83,0.00,,,0.00,WUHU216HW,2013-06-18 10:37:00,
2013-06-18 03:39:00,55.1,49.7,30.01,ENE,68,0.7,1.8,82,0.00,,,0.00,WUHU216HW,2013-06-18 10:39:00,
2013-06-18 03:42:00,55.1,50.0,30.01,ENE,68,1.8,1.8,83,0.00,,,0.00,WUHU216HW,2013-06-18 10:42:00,
2013-06-18 03:44:00,55.3,50.5,30.02,ENE,68,1.1,1.8,84,0.00,,,0.00,WUHU216HW,2013-06-18 10:44:00,
2013-06-18 03:47:00,55.3,50.5,30.02,ENE,68,1.3,1.8,84,0.00,,,0.00,WUHU216HW,2013-06-18 10:47:00,
2013-06-18 03:48:00,55.4,50.6,30.01,East,90,0.9,1.8,84,0.00,,,0.00,WUHU216HW,2013-06-18 10:48:00,
2013-06-18 03:49:00,55.4,50.6,30.01,ENE,68,1.1,1.8,84,0.00,,,0.00,WUHU216HW,2013-06-18 10:49:00,
2013-06-18 03:50:00,55.4,50.6,30.01,ENE,68,1.8,1.8,84,0.00,,,0.00,WUHU216HW,2013-06-18 10:50:00,
2013-06-18 03:52:00,55.4,50.9,30.02,NE,45,1.8,2.5,85,0.00,,,0.00,WUHU216HW,2013-06-18 10:52:00,
2013-06-18 03:53:00,55.6,51.1,30.02,NE,45,2.5,2.5,85,0.00,,,0.00,WUHU216HW,2013-06-18 10:53:00,
2013-06-18 03:54:00,55.6,50.8,30.02,NE,45,0.9,2.5,84,0.00,,,0.00,WUHU216HW,2013-06-18 10:54:00,
2013-06-18 03:55:00,55.6,50.8,30.02,ENE,68,0.9,2.5,84,0.00,,,0.00,WUHU216HW,2013-06-18 10:55:00,
2013-06-18 03:57:00,55.8,50.9,30.02,East,90,0.7,2.5,84,0.00,,,0.00,WUHU216HW,2013-06-18 10:57:00,
2013-06-18 03:58:00,55.8,50.9,30.02,ESE,113,0.4,2.5,84,0.00,,,0.00,WUHU216HW,2013-06-18 10:58:00,
2013-06-18 03:59:00,55.8,50.9,30.02,ESE,113,0.4,2.5,84,0.00,,,0.00,WUHU216HW,2013-06-18 10:59:00,
2013-06-18 04:00:00,55.8,50.9,30.01,SSE,158,0.7,2.5,84,0.00,,,0.00,WUHU216HW,2013-06-18 11:00:00,
2013-06-18 04:02:00,56.0,51.1,30.01,ESE,113,0.0,2.5,84,0.00,,,0.00,WUHU216HW,2013-06-18 11:02:00,
2013-06-18 04:03:00,56.0,51.1,30.02,SE,135,0.4,1.3,84,0.00,,,0.00,WUHU216HW,2013-06-18 11:03:00,
2013-06-18 04:04:00,56.0,51.1,30.02,SE,135,0.4,1.3,84,0.00,,,0.00,WUHU216HW,2013-06-18 11:04:00,
2013-06-18 04:05:00,56.2,51.3,30.02,SE,135,3.8,3.8,84,0.00,,,0.00,WUHU216HW,2013-06-18 11:05:00,
2013-06-18 04:07:00,56.3,51.8,30.01,East,90,1.8,3.8,85,0.00,,,0.00,WUHU216HW,2013-06-18 11:07:00,
2013-06-18 04:09:00,56.3,51.8,30.02,SSE,158,0.0,3.8,85,0.00,,,0.00,WUHU216HW,2013-06-18 11:09:00,
2013-06-18 04:10:00,56.3,51.8,30.02,ENE,68,0.4,3.8,85,0.00,,,0.00,WUHU216HW,2013-06-18 11:10:00,
2013-06-18 04:13:00,56.5,52.0,30.02,SSE,158,1.1,3.8,85,0.00,,,0.00,WUHU216HW,2013-06-18 11:13:00,
2013-06-18 04:14:00,56.5,52.4,30.02,South,180,3.6,3.8,86,0.00,,,0.00,WUHU216HW,2013-06-18 11:14:00,
2013-06-18 04:15:00,56.7,52.6,30.02,South,180,7.6,7.6,86,0.00,,,0.00,WUHU216HW,2013-06-18 11:15:00,
2013-06-18 04:18:00,57.2,53.1,30.02,South,180,6.9,7.6,86,0.00,,,0.00,WUHU216HW,2013-06-18 11:18:00,
2013-06-18 04:19:00,57.2,53.4,30.02,South,180,3.6,7.6,87,0.00,,,0.00,WUHU216HW,2013-06-18 11:19:00,
2013-06-18 04:20:00,57.2,53.4,30.02,South,180,3.6,7.6,87,0.00,,,0.00,WUHU216HW,2013-06-18 11:20:00,
2013-06-18 04:23:00,57.6,53.7,30.02,South,180,5.4,7.6,87,0.00,,,0.00,WUHU216HW,2013-06-18 11:23:00,
2013-06-18 04:24:00,57.8,53.9,30.02,South,180,2.5,7.6,87,0.00,,,0.00,WUHU216HW,2013-06-18 11:24:00,
2013-06-18 04:25:00,57.8,53.9,30.02,SE,135,1.3,7.6,87,0.00,,,0.00,WUHU216HW,2013-06-18 11:25:00,
2013-06-18 04:28:00,57.6,53.1,30.02,ENE,68,0.9,6.9,85,0.00,,,0.00,WUHU216HW,2013-06-18 11:28:00,
2013-06-18 04:29:00,57.8,53.3,30.02,ENE,68,0.7,6.9,85,0.00,,,0.00,WUHU216HW,2013-06-18 11:29:00,
2013-06-18 04:30:00,57.6,53.1,30.02,NE,45,0.7,6.9,85,0.00,,,0.00,WUHU216HW,2013-06-18 11:30:00,
2013-06-18 04:33:00,57.4,52.6,30.01,East,90,0.7,4.9,84,0.00,,,0.00,WUHU216HW,2013-06-18 11:33:00,
2013-06-18 04:34:00,57.2,52.4,30.02,East,90,0.7,2.5,84,0.00,,,0.00,WUHU216HW,2013-06-18 11:34:00,
2013-06-18 04:35:00,57.4,52.6,30.01,East,90,0.4,2.5,84,0.00,,,0.00,WUHU216HW,2013-06-18 11:35:00,
2013-06-18 04:36:00,57.2,52.4,30.01,SE,135,1.1,1.8,84,0.00,,,0.00,WUHU216HW,2013-06-18 11:36:00,
2013-06-18 04:38:00,57.1,52.2,30.01,ENE,68,1.1,1.8,84,0.00,,,0.00,WUHU216HW,2013-06-18 11:38:00,
2013-06-18 04:39:00,57.1,52.2,30.01,ENE,68,0.2,1.8,84,0.00,,,0.00,WUHU216HW,2013-06-18 11:39:00,
2013-06-18 04:40:00,56.9,52.0,30.01,ENE,68,0.4,1.8,84,0.00,,,0.00,WUHU216HW,2013-06-18 11:40:00,
2013-06-18 04:41:00,56.9,51.8,30.01,ESE,113,0.0,1.8,83,0.00,,,0.00,WUHU216HW,2013-06-18 11:41:00,
2013-06-18 04:44:00,56.5,51.4,30.01,NE,45,1.3,1.8,83,0.00,,,0.00,WUHU216HW,2013-06-18 11:44:00,
2013-06-18 04:45:00,56.5,51.4,30.01,ENE,68,0.7,1.8,83,0.00,,,0.00,WUHU216HW,2013-06-18 11:45:00,
2013-06-18 04:46:00,56.5,51.4,30.01,SSE,158,0.7,1.6,83,0.00,,,0.00,WUHU216HW,2013-06-18 11:46:00,
2013-06-18 04:49:00,56.2,50.7,30.01,ENE,68,0.0,1.3,82,0.00,,,0.00,WUHU216HW,2013-06-18 11:49:00,
2013-06-18 04:50:00,56.2,50.7,30.01,ENE,68,0.0,1.3,82,0.00,,,0.00,WUHU216HW,2013-06-18 11:50:00,
2013-06-18 04:51:00,56.0,50.9,30.02,ENE,68,0.7,1.3,83,0.00,,,0.00,WUHU216HW,2013-06-18 11:51:00,
2013-06-18 04:55:00,55.8,50.7,30.01,ENE,68,1.1,1.3,83,0.00,,,0.00,WUHU216HW,2013-06-18 11:55:00,
2013-06-18 04:56:00,55.8,50.7,30.01,ENE,68,1.1,1.3,83,0.00,,,0.00,WUHU216HW,2013-06-18 11:56:00,
2013-06-18 05:00:00,55.6,50.5,30.01,ENE,68,0.9,1.3,83,0.00,,,0.00,WUHU216HW,2013-06-18 12:00:00,
2013-06-18 05:01:00,55.6,50.5,30.01,NE,45,2.0,2.0,83,0.00,,,0.00,WUHU216HW,2013-06-18 12:01:00,
2013-06-18 05:05:00,55.6,50.8,30.01,SE,135,0.4,3.8,84,0.00,,,0.00,WUHU216HW,2013-06-18 12:05:00,
2013-06-18 05:06:00,55.6,50.8,30.01,East,90,0.4,3.8,84,0.00,,,0.00,WUHU216HW,2013-06-18 12:06:00,
2013-06-18 05:10:00,55.8,50.9,30.01,WSW,248,0.4,4.3,84,0.00,,,0.00,WUHU216HW,2013-06-18 12:10:00,
2013-06-18 05:11:00,55.8,51.3,30.01,ENE,68,0.0,4.3,85,0.00,,,0.00,WUHU216HW,2013-06-18 12:11:00,
2013-06-18 05:15:00,56.2,51.3,30.01,ESE,113,0.7,4.3,84,0.00,,,0.00,WUHU216HW,2013-06-18 12:15:00,
2013-06-18 05:16:00,56.2,51.3,30.01,East,90,0.4,4.3,84,0.00,,,0.00,WUHU216HW,2013-06-18 12:16:00,
2013-06-18 05:20:00,56.2,51.3,30.01,SSW,203,0.9,3.8,84,0.00,,,0.00,WUHU216HW,2013-06-18 12:20:00,
2013-06-18 05:21:00,56.2,51.3,30.01,SSW,203,0.9,3.8,84,0.00,,,0.00,WUHU216HW,2013-06-18 12:21:00,
2013-06-18 05:22:00,56.2,51.3,30.01,SSE,158,1.1,3.8,84,0.00,,,0.00,WUHU216HW,2013-06-18 12:22:00,
2013-06-18 05:25:00,56.2,51.3,30.01,SE,135,1.8,4.5,84,0.00,,,0.00,WUHU216HW,2013-06-18 12:25:00,
2013-06-18 05:26:00,56.2,51.3,30.01,ESE,113,0.7,4.5,84,0.00,,,0.00,WUHU216HW,2013-06-18 12:26:00,
2013-06-18 05:27:00,56.2,51.3,30.01,ENE,68,1.8,4.5,84,0.00,,,0.00,WUHU216HW,2013-06-18 12:27:00,
2013-06-18 05:31:00,56.2,51.3,30.02,ENE,68,1.1,4.5,84,0.00,,,0.00,WUHU216HW,2013-06-18 12:31:00,
2013-06-18 05:32:00,56.2,51.3,30.02,ENE,68,1.1,4.5,84,0.00,,,0.00,WUHU216HW,2013-06-18 12:32:00,
2013-06-18 05:33:00,56.2,51.3,30.01,ENE,68,1.1,4.5,84,0.00,,,0.00,WUHU216HW,2013-06-18 12:33:00,
2013-06-18 05:36:00,56.2,51.0,30.01,ENE,68,1.1,2.5,83,0.00,,,0.00,WUHU216HW,2013-06-18 12:36:00,
2013-06-18 05:37:00,56.2,51.3,30.01,ENE,68,1.1,2.5,84,0.00,,,0.00,WUHU216HW,2013-06-18 12:37:00,
2013-06-18 05:38:00,56.2,51.3,30.02,ENE,68,1.8,2.5,84,0.00,,,0.00,WUHU216HW,2013-06-18 12:38:00,
2013-06-18 05:41:00,56.0,50.9,30.02,ENE,68,1.1,2.5,83,0.00,,,0.00,WUHU216HW,2013-06-18 12:41:00,
2013-06-18 05:42:00,56.2,51.3,30.01,East,90,1.1,1.8,84,0.00,,,0.00,WUHU216HW,2013-06-18 12:42:00,
2013-06-18 05:43:00,56.2,51.3,30.01,ENE,68,1.3,1.8,84,0.00,,,0.00,WUHU216HW,2013-06-18 12:43:00,
2013-06-18 05:46:00,56.2,51.0,30.02,East,90,0.4,1.8,83,0.00,,,0.00,WUHU216HW,2013-06-18 12:46:00,
2013-06-18 05:47:00,56.2,51.0,30.02,East,90,0.9,1.8,83,0.00,,,0.00,WUHU216HW,2013-06-18 12:47:00,
2013-06-18 05:48:00,56.2,51.0,30.02,ENE,68,0.9,1.8,83,0.00,,,0.00,WUHU216HW,2013-06-18 12:48:00,
2013-06-18 05:49:00,56.2,51.0,30.02,ENE,68,0.9,1.8,83,0.00,,,0.00,WUHU216HW,2013-06-18 12:49:00,
2013-06-18 05:51:00,56.3,51.2,30.02,East,90,0.4,1.8,83,0.00,,,0.00,WUHU216HW,2013-06-18 12:51:00,
2013-06-18 05:53:00,56.3,51.5,30.02,ESE,113,0.4,1.8,84,0.00,,,0.00,WUHU216HW,2013-06-18 12:53:00,
2013-06-18 05:54:00,56.3,51.5,30.02,East,90,0.0,1.8,84,0.00,,,0.00,WUHU216HW,2013-06-18 12:54:00,
2013-06-18 05:56:00,56.5,51.4,30.02,ESE,113,0.4,1.3,83,0.00,,,0.00,WUHU216HW,2013-06-18 12:56:00,
2013-06-18 05:58:00,56.5,51.7,30.02,North,0,0.0,1.1,84,0.00,,,0.00,WUHU216HW,2013-06-18 12:58:00,
2013-06-18 05:59:00,56.5,51.7,30.01,North,0,0.2,1.1,84,0.00,,,0.00,WUHU216HW,2013-06-18 12:59:00,
2013-06-18 06:00:00,56.5,51.7,30.01,East,90,0.2,1.1,84,0.00,,,0.00,WUHU216HW,2013-06-18 13:00:00,
2013-06-18 06:01:00,56.5,51.7,30.01,East,90,1.1,1.1,84,0.00,,,0.00,WUHU216HW,2013-06-18 13:01:00,
2013-06-18 06:03:00,56.7,51.8,30.01,ESE,113,1.1,1.6,84,0.00,,,0.00,WUHU216HW,2013-06-18 13:03:00,
2013-06-18 06:04:00,56.7,51.8,30.01,ESE,113,1.1,1.6,84,0.00,,,0.00,WUHU216HW,2013-06-18 13:04:00,
2013-06-18 06:05:00,56.9,52.0,30.01,NNE,23,0.0,1.6,84,0.00,,,0.00,WUHU216HW,2013-06-18 13:05:00,
2013-06-18 06:06:00,56.9,52.0,30.01,South,180,3.4,5.1,84,0.00,,,0.00,WUHU216HW,2013-06-18 13:06:00,
2013-06-18 06:09:00,57.1,52.2,30.01,SE,135,0.9,5.1,84,0.00,,,0.00,WUHU216HW,2013-06-18 13:09:00,
2013-06-18 06:10:00,57.1,52.6,30.01,NE,45,0.9,5.1,85,0.00,,,0.00,WUHU216HW,2013-06-18 13:10:00,
2013-06-18 06:11:00,57.1,52.6,30.01,ENE,68,1.1,5.1,85,0.00,,,0.00,WUHU216HW,2013-06-18 13:11:00,
2013-06-18 06:14:00,57.2,52.7,30.01,ESE,113,0.4,5.1,85,0.00,,,0.00,WUHU216HW,2013-06-18 13:14:00,
2013-06-18 06:15:00,57.2,52.7,30.01,ENE,68,0.4,5.1,85,0.00,,,0.00,WUHU216HW,2013-06-18 13:15:00,
2013-06-18 06:17:00,57.2,52.4,30.01,NE,45,0.7,2.2,84,0.00,,,0.00,WUHU216HW,2013-06-18 13:17:00,
2013-06-18 06:19:00,57.2,52.4,30.01,East,90,0.9,2.2,84,0.00,,,0.00,WUHU216HW,2013-06-18 13:19:00,
2013-06-18 06:20:00,57.2,52.4,30.01,ESE,113,1.6,1.8,84,0.00,,,0.00,WUHU216HW,2013-06-18 13:20:00,
2013-06-18 06:22:00,57.2,52.4,30.01,SE,135,0.9,1.8,84,0.00,,,0.00,WUHU216HW,2013-06-18 13:22:00,
2013-06-18 06:24:00,57.2,52.4,30.01,NE,45,1.1,1.8,84,0.00,,,0.00,WUHU216HW,2013-06-18 13:24:00,
2013-06-18 06:25:00,57.2,52.4,30.01,East,90,0.9,1.8,84,0.00,,,0.00,WUHU216HW,2013-06-18 13:25:00,
2013-06-18 06:28:00,57.4,52.6,30.01,ESE,113,0.9,1.8,84,0.00,,,0.00,WUHU216HW,2013-06-18 13:28:00,
2013-06-18 06:29:00,57.4,52.6,30.01,ENE,68,0.4,1.8,84,0.00,,,0.00,WUHU216HW,2013-06-18 13:29:00,
2013-06-18 06:30:00,57.4,52.6,30.01,NE,45,0.7,1.8,84,0.00,,,0.00,WUHU216HW,2013-06-18 13:30:00,
2013-06-18 06:33:00,57.6,52.7,30.01,ENE,68,1.1,1.8,84,0.00,,,0.00,WUHU216HW,2013-06-18 13:33:00,
2013-06-18 06:34:00,57.8,52.9,30.01,East,90,0.0,1.8,84,0.00,,,0.00,WUHU216HW,2013-06-18 13:34:00,
2013-06-18 06:35:00,57.8,52.9,30.01,East,90,0.0,1.8,84,0.00,,,0.00,WUHU216HW,2013-06-18 13:35:00,
2013-06-18 06:38:00,58.0,53.1,30.01,SE,135,0.0,1.3,84,0.00,,,0.00,WUHU216HW,2013-06-18 13:38:00,
2013-06-18 06:40:00,58.0,53.1,30.01,ESE,113,0.9,1.3,84,0.00,,,0.00,WUHU216HW,2013-06-18 13:40:00,
2013-06-18 06:41:00,58.3,53.5,30.01,ESE,113,1.1,1.3,84,0.00,,,0.00,WUHU216HW,2013-06-18 13:41:00,
2013-06-18 06:43:00,58.3,53.5,30.01,ESE,113,0.4,1.8,84,0.00,,,0.00,WUHU216HW,2013-06-18 13:43:00,
2013-06-18 06:45:00,58.3,53.5,30.01,East,90,0.0,1.8,84,0.00,,,0.00,WUHU216HW,2013-06-18 13:45:00,
2013-06-18 06:46:00,58.3,53.2,30.01,ESE,113,0.4,1.8,83,0.00,,,0.00,WUHU216HW,2013-06-18 13:46:00,
2013-06-18 06:49:00,58.3,53.2,30.01,East,90,0.0,1.8,83,0.00,,,0.00,WUHU216HW,2013-06-18 13:49:00,
2013-06-18 06:50:00,58.3,53.2,30.01,SSE,158,0.4,1.8,83,0.00,,,0.00,WUHU216HW,2013-06-18 13:50:00,
2013-06-18 06:51:00,58.3,53.2,30.01,ESE,113,0.4,1.8,83,0.00,,,0.00,WUHU216HW,2013-06-18 13:51:00,
2013-06-18 06:54:00,58.3,53.2,30.01,East,90,0.4,1.6,83,0.00,,,0.00,WUHU216HW,2013-06-18 13:54:00,
2013-06-18 06:55:00,58.1,53.0,30.01,NE,45,1.1,1.6,83,0.00,,,0.00,WUHU216HW,2013-06-18 13:55:00,
2013-06-18 06:56:00,58.1,53.0,30.01,ENE,68,0.4,1.6,83,0.00,,,0.00,WUHU216HW,2013-06-18 13:56:00,
2013-06-18 06:59:00,58.0,52.5,30.01,NE,45,0.2,1.6,82,0.00,,,0.00,WUHU216HW,2013-06-18 13:59:00,
2013-06-18 07:00:00,58.0,52.5,30.01,ENE,68,0.0,1.6,82,0.00,,,0.00,WUHU216HW,2013-06-18 14:00:00,
2013-06-18 07:01:00,58.0,52.5,30.01,ENE,68,0.0,1.6,82,0.00,,,0.00,WUHU216HW,2013-06-18 14:01:00,
2013-06-18 07:04:00,58.0,52.5,30.01,SE,135,1.8,1.8,82,0.00,,,0.00,WUHU216HW,2013-06-18 14:04:00,
2013-06-18 07:06:00,58.0,52.5,30.01,ENE,68,0.7,1.8,82,0.00,,,0.00,WUHU216HW,2013-06-18 14:06:00,
2013-06-18 07:07:00,57.8,52.3,30.01,ENE,68,0.7,1.8,82,0.00,,,0.00,WUHU216HW,2013-06-18 14:07:00,
2013-06-18 07:09:00,57.8,52.3,30.01,ENE,68,0.4,1.8,82,0.00,,,0.00,WUHU216HW,2013-06-18 14:09:00,
2013-06-18 07:11:00,57.6,52.1,30.01,SE,135,1.1,1.8,82,0.00,,,0.00,WUHU216HW,2013-06-18 14:11:00,
2013-06-18 07:12:00,57.8,52.3,30.01,ESE,113,1.1,1.8,82,0.00,,,0.00,WUHU216HW,2013-06-18 14:12:00,
2013-06-18 07:14:00,57.6,52.1,30.01,ESE,113,1.3,1.8,82,0.00,,,0.00,WUHU216HW,2013-06-18 14:14:00,
2013-06-18 07:16:00,57.6,52.1,30.01,ENE,68,1.1,1.8,82,0.00,,,0.00,WUHU216HW,2013-06-18 14:16:00,
2013-06-18 07:17:00,57.6,52.1,30.01,NE,45,2.0,2.0,82,0.00,,,0.00,WUHU216HW,2013-06-18 14:17:00,
2013-06-18 07:19:00,57.6,52.1,30.01,ENE,68,0.4,2.2,82,0.00,,,0.00,WUHU216HW,2013-06-18 14:19:00,
2013-06-18 07:21:00,57.6,52.1,30.01,ESE,113,1.1,2.2,82,0.00,,,0.00,WUHU216HW,2013-06-18 14:21:00,
2013-06-18 07:22:00,57.8,52.3,30.01,ESE,113,1.1,2.2,82,0.00,,,0.00,WUHU216HW,2013-06-18 14:22:00,
2013-06-18 07:23:00,57.8,52.3,30.01,ENE,68,1.8,2.2,82,0.00,,,0.00,WUHU216HW,2013-06-18 14:23:00,
2013-06-18 07:24:00,57.8,52.3,30.01,East,90,1.6,2.5,82,0.00,,,0.00,WUHU216HW,2013-06-18 14:24:00,
2013-06-18 07:26:00,57.8,52.3,30.01,East,90,0.2,2.5,82,0.00,,,0.00,WUHU216HW,2013-06-18 14:26:00,
2013-06-18 07:27:00,57.8,52.3,30.01,East,90,0.0,2.5,82,0.00,,,0.00,WUHU216HW,2013-06-18 14:27:00,
2013-06-18 07:28:00,57.8,52.3,30.01,ESE,113,1.6,2.5,82,0.00,,,0.00,WUHU216HW,2013-06-18 14:28:00,
2013-06-18 07:29:00,58.0,52.5,30.01,NE,45,2.2,2.5,82,0.00,,,0.00,WUHU216HW,2013-06-18 14:29:00,
2013-06-18 07:31:00,58.0,52.5,30.01,East,90,4.5,4.5,82,0.00,,,0.00,WUHU216HW,2013-06-18 14:31:00,
2013-06-18 07:32:00,58.0,52.5,30.01,East,90,1.8,4.5,82,0.00,,,0.00,WUHU216HW,2013-06-18 14:32:00,
2013-06-18 07:33:00,58.0,52.5,30.01,ENE,68,0.7,4.5,82,0.00,,,0.00,WUHU216HW,2013-06-18 14:33:00,
2013-06-18 07:34:00,58.0,52.5,30.01,NE,45,1.8,4.5,82,0.00,,,0.00,WUHU216HW,2013-06-18 14:34:00,
2013-06-18 07:36:00,58.1,52.7,30.01,ENE,68,0.9,4.5,82,0.00,,,0.00,WUHU216HW,2013-06-18 14:36:00,
2013-06-18 07:37:00,58.1,52.7,30.01,SE,135,1.8,4.5,82,0.00,,,0.00,WUHU216HW,2013-06-18 14:37:00,
2013-06-18 07:38:00,58.3,52.8,30.01,East,90,0.4,4.5,82,0.00,,,0.00,WUHU216HW,2013-06-18 14:38:00,
2013-06-18 07:40:00,58.3,52.6,30.01,ESE,113,0.9,4.5,81,0.00,,,0.00,WUHU216HW,2013-06-18 14:40:00,
2013-06-18 07:42:00,58.3,52.6,30.01,SE,135,2.5,2.7,81,0.00,,,0.00,WUHU216HW,2013-06-18 14:42:00,
2013-06-18 07:43:00,58.5,52.8,30.01,SE,135,0.0,2.5,81,0.00,,,0.00,WUHU216HW,2013-06-18 14:43:00,
2013-06-18 07:44:00,58.5,52.8,30.01,SE,135,0.0,2.5,81,0.00,,,0.00,WUHU216HW,2013-06-18 14:44:00,
2013-06-18 07:45:00,58.5,52.8,30.01,SE,135,0.0,2.5,81,0.00,,,0.00,WUHU216HW,2013-06-18 14:45:00,
2013-06-18 07:47:00,58.5,52.8,30.01,SE,135,0.0,2.5,81,0.00,,,0.00,WUHU216HW,2013-06-18 14:47:00,
2013-06-18 07:48:00,58.9,53.1,30.01,SE,135,1.1,2.5,81,0.00,,,0.00,WUHU216HW,2013-06-18 14:48:00,
2013-06-18 07:49:00,59.0,53.3,30.01,SE,135,1.1,2.5,81,0.00,,,0.00,WUHU216HW,2013-06-18 14:49:00,
2013-06-18 07:50:00,59.4,53.7,30.01,WSW,248,0.9,2.5,81,0.00,,,0.00,WUHU216HW,2013-06-18 14:50:00,
2013-06-18 07:52:00,59.6,53.8,30.01,ENE,68,0.7,1.6,81,0.00,,,0.00,WUHU216HW,2013-06-18 14:52:00,
2013-06-18 07:53:00,59.8,53.6,30.01,SSE,158,0.9,1.6,80,0.00,,,0.00,WUHU216HW,2013-06-18 14:53:00,
2013-06-18 07:54:00,59.9,53.8,30.01,NNE,23,1.8,1.8,80,0.00,,,0.00,WUHU216HW,2013-06-18 14:54:00,
2013-06-18 07:55:00,60.3,53.8,30.01,ENE,68,1.8,2.5,79,0.00,,,0.00,WUHU216HW,2013-06-18 14:55:00,
2013-06-18 07:57:00,60.5,53.6,30.01,ESE,113,3.1,3.1,78,0.00,,,0.00,WUHU216HW,2013-06-18 14:57:00,
2013-06-18 07:58:00,60.7,53.8,30.01,East,90,2.2,3.1,78,0.00,,,0.00,WUHU216HW,2013-06-18 14:58:00,
2013-06-18 07:59:00,60.7,53.8,30.01,East,90,2.2,3.1,78,0.00,,,0.00,WUHU216HW,2013-06-18 14:59:00,
2013-06-18 08:00:00,60.8,54.0,30.01,ENE,68,1.3,3.1,78,0.00,,,0.00,WUHU216HW,2013-06-18 15:00:00,
2013-06-18 08:02:00,61.0,53.8,30.01,SE,135,1.3,3.1,77,0.00,,,0.00,WUHU216HW,2013-06-18 15:02:00,
2013-06-18 08:03:00,61.0,53.8,30.01,NNE,23,1.8,3.1,77,0.00,,,0.00,WUHU216HW,2013-06-18 15:03:00,
2013-06-18 08:04:00,61.2,54.0,30.01,East,90,1.8,3.1,77,0.00,,,0.00,WUHU216HW,2013-06-18 15:04:00,
2013-06-18 08:06:00,61.2,54.0,30.01,South,180,1.6,3.1,77,0.00,,,0.00,WUHU216HW,2013-06-18 15:06:00,
2013-06-18 08:07:00,61.4,54.1,30.01,NE,45,1.6,3.1,77,0.00,,,0.00,WUHU216HW,2013-06-18 15:07:00,
2013-06-18 08:08:00,61.6,54.3,30.01,East,90,1.1,3.1,77,0.00,,,0.00,WUHU216HW,2013-06-18 15:08:00,
2013-06-18 08:09:00,61.6,53.9,30.01,SE,135,2.2,3.1,76,0.00,,,0.00,WUHU216HW,2013-06-18 15:09:00,
2013-06-18 08:11:00,61.6,53.9,30.01,SE,135,1.3,3.1,76,0.00,,,0.00,WUHU216HW,2013-06-18 15:11:00,
2013-06-18 08:12:00,61.7,54.1,30.01,SE,135,1.3,2.5,76,0.00,,,0.00,WUHU216HW,2013-06-18 15:12:00,
2013-06-18 08:13:00,61.6,53.9,30.01,SE,135,2.2,2.5,76,0.00,,,0.00,WUHU216HW,2013-06-18 15:13:00,
2013-06-18 08:15:00,61.7,54.1,30.01,ENE,68,2.0,2.5,76,0.00,,,0.00,WUHU216HW,2013-06-18 15:15:00,
2013-06-18 08:16:00,61.7,54.1,30.01,NNE,23,0.7,2.5,76,0.00,,,0.00,WUHU216HW,2013-06-18 15:16:00,
2013-06-18 08:18:00,61.7,53.7,30.01,ESE,113,3.4,4.3,75,0.00,,,0.00,WUHU216HW,2013-06-18 15:18:00,
2013-06-18 08:21:00,61.6,53.6,30.01,NE,45,0.4,4.3,75,0.00,,,0.00,WUHU216HW,2013-06-18 15:21:00,
2013-06-18 08:23:00,61.6,53.6,30.01,ESE,113,2.2,4.3,75,0.00,,,0.00,WUHU216HW,2013-06-18 15:23:00,
2013-06-18 08:24:00,61.6,53.6,30.01,ESE,113,2.2,4.3,75,0.00,,,0.00,WUHU216HW,2013-06-18 15:24:00,
2013-06-18 08:26:00,61.6,53.6,30.01,ESE,113,2.2,4.3,75,0.00,,,0.00,WUHU216HW,2013-06-18 15:26:00,
2013-06-18 08:28:00,61.4,53.4,30.01,SE,135,0.2,3.4,75,0.00,,,0.00,WUHU216HW,2013-06-18 15:28:00,
2013-06-18 08:29:00,61.4,53.4,30.01,ESE,113,2.5,2.9,75,0.00,,,0.00,WUHU216HW,2013-06-18 15:29:00,
2013-06-18 08:31:00,61.6,53.6,30.01,SE,135,2.2,4.7,75,0.00,,,0.00,WUHU216HW,2013-06-18 15:31:00,
2013-06-18 08:33:00,61.7,53.4,30.01,SSE,158,4.3,4.7,74,0.00,,,0.00,WUHU216HW,2013-06-18 15:33:00,
2013-06-18 08:34:00,61.7,53.4,30.01,SE,135,3.6,4.7,74,0.00,,,0.00,WUHU216HW,2013-06-18 15:34:00,
2013-06-18 08:36:00,61.7,53.4,30.01,SE,135,3.6,4.7,74,0.00,,,0.00,WUHU216HW,2013-06-18 15:36:00,
2013-06-18 08:38:00,62.3,52.0,30.00,SSE,158,1.8,6.9,69,0.00,,,0.00,WUHU216HW,2013-06-18 15:38:00,
2013-06-18 08:39:00,62.3,52.0,30.01,SSE,158,1.8,6.9,69,0.00,,,0.00,WUHU216HW,2013-06-18 15:39:00,
2013-06-18 08:41:00,62.6,52.3,30.01,SE,135,2.9,6.9,69,0.00,,,0.00,WUHU216HW,2013-06-18 15:41:00,
2013-06-18 08:42:00,62.6,52.3,30.01,SE,135,2.9,6.9,69,0.00,,,0.00,WUHU216HW,2013-06-18 15:42:00,
2013-06-18 08:44:00,63.0,51.4,30.01,SSE,158,3.4,6.9,66,0.00,,,0.00,WUHU216HW,2013-06-18 15:44:00,
2013-06-18 08:45:00,63.0,51.4,30.01,South,180,7.8,7.8,66,0.00,,,0.00,WUHU216HW,2013-06-18 15:45:00,
2013-06-18 08:47:00,63.4,51.8,30.01,SE,135,4.0,7.8,66,0.00,,,0.00,WUHU216HW,2013-06-18 15:47:00,
2013-06-18 08:49:00,63.5,51.9,30.01,SSW,203,6.9,7.8,66,0.00,,,0.00,WUHU216HW,2013-06-18 15:49:00,
2013-06-18 08:50:00,63.5,51.6,30.01,SE,135,2.5,7.8,65,0.00,,,0.00,WUHU216HW,2013-06-18 15:50:00,
2013-06-18 08:52:00,63.7,52.1,30.01,SSW,203,2.5,7.8,66,0.00,,,0.00,WUHU216HW,2013-06-18 15:52:00,
2013-06-18 08:54:00,63.9,52.3,30.01,South,180,5.4,7.8,66,0.00,,,0.00,WUHU216HW,2013-06-18 15:54:00,
2013-06-18 08:55:00,64.1,52.9,30.01,SE,135,6.0,7.2,67,0.00,,,0.00,WUHU216HW,2013-06-18 15:55:00,
2013-06-18 08:57:00,64.3,53.1,30.01,SSE,158,4.7,8.1,67,0.00,,,0.00,WUHU216HW,2013-06-18 15:57:00,
2013-06-18 08:59:00,64.4,53.6,30.01,SE,135,2.7,8.1,68,0.00,,,0.00,WUHU216HW,2013-06-18 15:59:00,
2013-06-18 09:00:00,64.6,53.8,30.01,SE,135,4.5,8.1,68,0.00,,,0.00,WUHU216HW,2013-06-18 16:00:00,
2013-06-18 09:02:00,65.0,53.7,30.01,South,180,3.1,8.1,67,0.00,,,0.00,WUHU216HW,2013-06-18 16:02:00,
2013-06-18 09:03:00,65.0,53.7,30.01,ESE,113,1.6,8.1,67,0.00,,,0.00,WUHU216HW,2013-06-18 16:03:00,
2013-06-18 09:04:00,65.2,53.9,30.01,ENE,68,2.0,8.1,67,0.00,,,0.00,WUHU216HW,2013-06-18 16:04:00,
2013-06-18 09:05:00,65.5,54.6,30.01,SSE,158,7.6,8.1,68,0.00,,,0.00,WUHU216HW,2013-06-18 16:05:00,
2013-06-18 09:07:00,65.5,51.8,30.01,South,180,9.2,9.2,61,0.00,,,0.00,WUHU216HW,2013-06-18 16:07:00,
2013-06-18 09:08:00,65.7,51.5,30.01,South,180,8.5,9.2,60,0.00,,,0.00,WUHU216HW,2013-06-18 16:08:00,
2013-06-18 09:09:00,65.5,51.8,30.00,SSE,158,7.2,9.8,61,0.00,,,0.00,WUHU216HW,2013-06-18 16:09:00,
2013-06-18 09:10:00,65.5,51.8,30.00,SSE,158,9.8,9.8,61,0.00,,,0.00,WUHU216HW,2013-06-18 16:10:00,
2013-06-18 09:13:00,65.7,51.5,30.00,SSE,158,8.3,9.8,60,0.00,,,0.00,WUHU216HW,2013-06-18 16:13:00,
2013-06-18 09:14:00,65.9,51.7,30.00,SSE,158,6.9,9.8,60,0.00,,,0.00,WUHU216HW,2013-06-18 16:14:00,
2013-06-18 09:15:00,65.9,51.2,30.00,SE,135,5.8,9.8,59,0.00,,,0.00,WUHU216HW,2013-06-18 16:15:00,
2013-06-18 09:16:00,65.9,51.7,30.00,SSE,158,4.3,9.8,60,0.00,,,0.00,WUHU216HW,2013-06-18 16:16:00,
2013-06-18 09:18:00,66.1,51.8,30.00,South,180,6.7,9.8,60,0.00,,,0.00,WUHU216HW,2013-06-18 16:18:00,
2013-06-18 09:19:00,66.6,51.8,30.00,SSE,158,3.4,9.8,59,0.00,,,0.00,WUHU216HW,2013-06-18 16:19:00,
2013-06-18 09:20:00,66.6,51.4,30.00,South,180,5.1,9.8,58,0.00,,,0.00,WUHU216HW,2013-06-18 16:20:00,
2013-06-18 09:21:00,66.8,51.0,30.00,SSE,158,4.0,8.3,57,0.00,,,0.00,WUHU216HW,2013-06-18 16:21:00,
2013-06-18 09:23:00,67.1,51.4,30.00,SE,135,3.8,8.3,57,0.00,,,0.00,WUHU216HW,2013-06-18 16:23:00,
2013-06-18 09:25:00,67.3,52.0,30.00,SSE,158,5.8,6.7,58,0.00,,,0.00,WUHU216HW,2013-06-18 16:25:00,
2013-06-18 09:26:00,67.7,50.9,30.00,SE,135,2.5,6.7,55,0.00,,,0.00,WUHU216HW,2013-06-18 16:26:00,
2013-06-18 09:28:00,68.0,51.2,30.00,South,180,8.7,10.3,55,0.00,,,0.00,WUHU216HW,2013-06-18 16:28:00,
2013-06-18 09:29:00,68.0,51.2,30.00,South,180,8.7,10.3,55,0.00,,,0.00,WUHU216HW,2013-06-18 16:29:00,
2013-06-18 09:30:00,68.2,52.4,30.00,SE,135,7.6,10.3,57,0.00,,,0.00,WUHU216HW,2013-06-18 16:30:00,
2013-06-18 09:31:00,68.0,51.7,30.00,SSE,158,5.8,10.3,56,0.00,,,0.00,WUHU216HW,2013-06-18 16:31:00,
2013-06-18 09:33:00,68.4,51.0,30.00,SSE,158,4.0,10.3,54,0.00,,,0.00,WUHU216HW,2013-06-18 16:33:00,
2013-06-18 09:34:00,68.4,51.6,30.00,SSE,158,4.0,10.3,55,0.00,,,0.00,WUHU216HW,2013-06-18 16:34:00,
2013-06-18 09:35:00,68.6,51.2,30.00,SE,135,3.1,10.3,54,0.00,,,0.00,WUHU216HW,2013-06-18 16:35:00,
2013-06-18 09:36:00,68.8,51.4,30.00,SE,135,3.1,10.3,54,0.00,,,0.00,WUHU216HW,2013-06-18 16:36:00,
2013-06-18 09:39:00,69.3,51.4,30.00,SSE,158,3.1,8.7,53,0.00,,,0.00,WUHU216HW,2013-06-18 16:39:00,
2013-06-18 09:40:00,69.5,51.6,30.00,SSE,158,4.0,7.2,53,0.00,,,0.00,WUHU216HW,2013-06-18 16:40:00,
2013-06-18 09:41:00,69.5,51.6,30.00,SE,135,3.6,7.2,53,0.00,,,0.00,WUHU216HW,2013-06-18 16:41:00,
2013-06-18 09:44:00,69.7,52.3,30.00,SSW,203,1.6,6.3,54,0.00,,,0.00,WUHU216HW,2013-06-18 16:44:00,
2013-06-18 09:45:00,70.4,52.4,30.00,SSE,158,5.6,6.3,53,0.00,,,0.00,WUHU216HW,2013-06-18 16:45:00,
2013-06-18 09:46:00,70.6,53.1,30.00,ESE,113,3.4,6.3,54,0.00,,,0.00,WUHU216HW,2013-06-18 16:46:00,
2013-06-18 09:49:00,71.3,53.7,30.00,SSW,203,4.0,6.3,54,0.00,,,0.00,WUHU216HW,2013-06-18 16:49:00,
2013-06-18 09:51:00,71.6,52.6,30.00,SE,135,7.4,7.4,51,0.00,,,0.00,WUHU216HW,2013-06-18 16:51:00,
2013-06-18 09:54:00,71.1,50.9,30.00,East,90,3.4,7.4,49,0.00,,,0.00,WUHU216HW,2013-06-18 16:54:00,
2013-06-18 09:55:00,71.1,51.6,30.00,East,90,3.4,7.4,50,0.00,,,0.00,WUHU216HW,2013-06-18 16:55:00,
2013-06-18 09:56:00,70.9,51.8,30.00,SE,135,6.3,7.4,51,0.00,,,0.00,WUHU216HW,2013-06-18 16:56:00,
2013-06-18 09:59:00,69.5,50.6,30.00,SSE,158,2.5,8.1,51,0.00,,,0.00,WUHU216HW,2013-06-18 16:59:00,
2013-06-18 10:00:00,69.5,50.6,30.00,SSE,158,2.5,8.1,51,0.00,,,0.00,WUHU216HW,2013-06-18 17:00:00,
2013-06-18 10:01:00,69.3,51.0,30.00,SSE,158,5.8,8.1,52,0.00,,,0.00,WUHU216HW,2013-06-18 17:01:00,
2013-06-18 10:02:00,69.1,50.2,30.00,South,180,2.7,8.1,51,0.00,,,0.00,WUHU216HW,2013-06-18 17:02:00,
2013-06-18 10:04:00,68.8,51.0,30.00,SE,135,1.1,8.1,53,0.00,,,0.00,WUHU216HW,2013-06-18 17:04:00,
2013-06-18 10:05:00,68.8,51.0,30.00,ESE,113,2.5,8.1,53,0.00,,,0.00,WUHU216HW,2013-06-18 17:05:00,
2013-06-18 10:06:00,68.8,51.0,30.00,SSE,158,3.8,8.1,53,0.00,,,0.00,WUHU216HW,2013-06-18 17:06:00,
2013-06-18 10:07:00,68.8,51.0,30.00,SSE,158,3.8,8.1,53,0.00,,,0.00,WUHU216HW,2013-06-18 17:07:00,
2013-06-18 10:10:00,69.5,52.1,29.99,SW,225,0.9,5.8,54,0.00,,,0.00,WUHU216HW,2013-06-18 17:10:00,
2013-06-18 10:11:00,69.8,51.4,30.00,South,180,3.4,4.0,52,0.00,,,0.00,WUHU216HW,2013-06-18 17:11:00,
2013-06-18 10:12:00,70.0,51.6,30.00,SSW,203,2.2,4.0,52,0.00,,,0.00,WUHU216HW,2013-06-18 17:12:00,
2013-06-18 10:15:00,70.6,52.0,29.99,SSE,158,6.9,6.9,52,0.00,,,0.00,WUHU216HW,2013-06-18 17:15:00,
2013-06-18 10:17:00,70.7,51.2,29.99,SE,135,5.8,8.5,50,0.00,,,0.00,WUHU216HW,2013-06-18 17:17:00,
2013-06-18 10:20:00,70.7,51.2,30.00,SE,135,5.8,8.5,50,0.00,,,0.00,WUHU216HW,2013-06-18 17:20:00,
2013-06-18 10:22:00,71.3,50.5,29.99,SSE,158,5.1,8.5,48,0.00,,,0.00,WUHU216HW,2013-06-18 17:22:00,
2013-06-18 10:25:00,70.2,50.8,30.00,South,180,4.7,7.2,50,0.00,,,0.00,WUHU216HW,2013-06-18 17:25:00,
2013-06-18 10:27:00,69.8,51.0,29.99,SSE,158,3.1,7.2,51,0.00,,,0.00,WUHU216HW,2013-06-18 17:27:00,
2013-06-18 10:30:00,70.0,51.0,29.99,SE,135,7.6,8.7,51,0.00,,,0.00,WUHU216HW,2013-06-18 17:30:00,
2013-06-18 10:31:00,70.0,50.6,30.00,SE,135,8.1,8.7,50,0.00,,,0.00,WUHU216HW,2013-06-18 17:31:00,
2013-06-18 10:32:00,70.0,51.0,30.00,South,180,6.7,8.7,51,0.00,,,0.00,WUHU216HW,2013-06-18 17:32:00,
2013-06-18 10:33:00,70.0,49.4,30.00,South,180,4.0,8.7,48,0.00,,,0.00,WUHU216HW,2013-06-18 17:33:00,
2013-06-18 10:35:00,69.7,49.1,30.00,South,180,5.4,8.7,48,0.00,,,0.00,WUHU216HW,2013-06-18 17:35:00,
2013-06-18 10:36:00,69.7,49.7,29.99,South,180,7.2,8.7,49,0.00,,,0.00,WUHU216HW,2013-06-18 17:36:00,
2013-06-18 10:37:00,69.5,50.0,29.99,SSE,158,7.8,8.7,50,0.00,,,0.00,WUHU216HW,2013-06-18 17:37:00,
2013-06-18 10:38:00,69.5,50.0,29.99,SSE,158,7.8,8.7,50,0.00,,,0.00,WUHU216HW,2013-06-18 17:38:00,
2013-06-18 10:39:00,69.1,49.8,29.99,SE,135,4.7,8.7,50,0.00,,,0.00,WUHU216HW,2013-06-18 17:39:00,
2013-06-18 10:41:00,68.9,49.6,29.99,SSE,158,4.0,8.1,50,0.00,,,0.00,WUHU216HW,2013-06-18 17:41:00,
2013-06-18 10:42:00,68.8,50.4,29.99,SSE,158,6.9,7.8,52,0.00,,,0.00,WUHU216HW,2013-06-18 17:42:00,
2013-06-18 10:43:00,68.8,50.4,29.99,SSE,158,7.6,7.8,52,0.00,,,0.00,WUHU216HW,2013-06-18 17:43:00,
2013-06-18 10:44:00,68.9,50.1,29.99,South,180,6.3,7.8,51,0.00,,,0.00,WUHU216HW,2013-06-18 17:44:00,
2013-06-18 10:46:00,69.1,50.2,29.99,South,180,5.4,7.8,51,0.00,,,0.00,WUHU216HW,2013-06-18 17:46:00,
2013-06-18 10:47:00,69.1,50.2,29.99,SSE,158,6.7,7.8,51,0.00,,,0.00,WUHU216HW,2013-06-18 17:47:00,
2013-06-18 10:48:00,69.5,50.6,29.99,South,180,4.0,7.8,51,0.00,,,0.00,WUHU216HW,2013-06-18 17:48:00,
2013-06-18 10:49:00,69.8,51.0,29.99,SSE,158,4.5,7.8,51,0.00,,,0.00,WUHU216HW,2013-06-18 17:49:00,
2013-06-18 10:51:00,70.2,51.2,29.99,South,180,3.4,7.8,51,0.00,,,0.00,WUHU216HW,2013-06-18 17:51:00,
2013-06-18 10:52:00,70.7,51.2,29.99,SSE,158,4.3,7.8,50,0.00,,,0.00,WUHU216HW,2013-06-18 17:52:00,
2013-06-18 10:53:00,71.3,51.7,29.99,SW,225,1.1,7.8,50,0.00,,,0.00,WUHU216HW,2013-06-18 17:53:00,
2013-06-18 10:55:00,72.2,51.3,29.99,South,180,5.4,6.9,48,0.00,,,0.00,WUHU216HW,2013-06-18 17:55:00,
2013-06-18 10:56:00,72.7,51.2,29.99,South,180,4.3,6.9,47,0.00,,,0.00,WUHU216HW,2013-06-18 17:56:00,
2013-06-18 10:57:00,72.7,50.6,29.99,South,180,4.3,6.9,46,0.00,,,0.00,WUHU216HW,2013-06-18 17:57:00,
2013-06-18 10:58:00,72.7,50.1,29.99,SE,135,3.4,6.9,45,0.00,,,0.00,WUHU216HW,2013-06-18 17:58:00,
2013-06-18 11:00:00,72.7,50.6,29.99,SSE,158,4.9,6.9,46,0.00,,,0.00,WUHU216HW,2013-06-18 18:00:00,
2013-06-18 11:02:00,72.7,50.6,29.99,SSE,158,4.9,6.9,46,0.00,,,0.00,WUHU216HW,2013-06-18 18:02:00,
2013-06-18 11:03:00,73.1,50.9,29.99,SW,225,0.9,6.9,46,0.00,,,0.00,WUHU216HW,2013-06-18 18:03:00,
2013-06-18 11:05:00,73.8,51.6,29.99,SSE,158,2.7,4.9,46,0.00,,,0.00,WUHU216HW,2013-06-18 18:05:00,
2013-06-18 11:07:00,74.2,50.8,29.99,SSE,158,5.1,6.9,44,0.00,,,0.00,WUHU216HW,2013-06-18 18:07:00,
2013-06-18 11:08:00,74.2,52.6,29.99,SSE,158,7.4,7.6,47,0.00,,,0.00,WUHU216HW,2013-06-18 18:08:00,
2013-06-18 11:09:00,74.2,51.9,29.99,SSE,158,7.4,7.6,46,0.00,,,0.00,WUHU216HW,2013-06-18 18:09:00,
2013-06-18 11:10:00,74.0,51.2,29.99,SSE,158,5.1,7.6,45,0.00,,,0.00,WUHU216HW,2013-06-18 18:10:00,
2013-06-18 11:12:00,73.6,50.9,29.99,South,180,6.9,8.3,45,0.00,,,0.00,WUHU216HW,2013-06-18 18:12:00,
2013-06-18 11:13:00,73.6,50.2,29.99,SSW,203,4.3,8.3,44,0.00,,,0.00,WUHU216HW,2013-06-18 18:13:00,
2013-06-18 11:14:00,73.4,50.0,29.99,South,180,3.1,8.3,44,0.00,,,0.00,WUHU216HW,2013-06-18 18:14:00,
2013-06-18 11:15:00,73.8,51.0,29.99,SSE,158,5.4,8.3,45,0.00,,,0.00,WUHU216HW,2013-06-18 18:15:00,
2013-06-18 11:17:00,74.0,51.2,29.99,South,180,4.3,8.3,45,0.00,,,0.00,WUHU216HW,2013-06-18 18:17:00,
2013-06-18 11:18:00,74.2,51.9,29.99,South,180,2.7,8.3,46,0.00,,,0.00,WUHU216HW,2013-06-18 18:18:00,
2013-06-18 11:19:00,74.5,52.3,29.99,South,180,3.8,8.3,46,0.00,,,0.00,WUHU216HW,2013-06-18 18:19:00,
2013-06-18 11:21:00,75.1,51.6,29.99,SSE,158,8.5,8.5,44,0.00,,,0.00,WUHU216HW,2013-06-18 18:21:00,
2013-06-18 11:22:00,74.9,50.9,29.99,SSE,158,8.5,8.5,43,0.00,,,0.00,WUHU216HW,2013-06-18 18:22:00,
2013-06-18 11:23:00,74.5,51.1,29.99,SSE,158,5.4,8.5,44,0.00,,,0.00,WUHU216HW,2013-06-18 18:23:00,
2013-06-18 11:24:00,73.8,50.4,29.99,ESE,113,2.5,8.5,44,0.00,,,0.00,WUHU216HW,2013-06-18 18:24:00,
2013-06-18 11:26:00,73.1,50.9,29.99,South,180,0.0,8.5,46,0.00,,,0.00,WUHU216HW,2013-06-18 18:26:00,
2013-06-18 11:27:00,73.1,50.9,29.99,NE,45,0.9,8.5,46,0.00,,,0.00,WUHU216HW,2013-06-18 18:27:00,
2013-06-18 11:28:00,73.1,50.9,29.99,NE,45,0.9,8.5,46,0.00,,,0.00,WUHU216HW,2013-06-18 18:28:00,
2013-06-18 11:29:00,73.6,52.0,29.98,WSW,248,1.3,8.5,47,0.00,,,0.00,WUHU216HW,2013-06-18 18:29:00,
2013-06-18 11:31:00,74.9,52.7,29.99,SSE,158,6.0,8.5,46,0.00,,,0.00,WUHU216HW,2013-06-18 18:31:00,
2013-06-18 11:32:00,75.2,52.4,29.98,South,180,4.7,6.0,45,0.00,,,0.00,WUHU216HW,2013-06-18 18:32:00,
2013-06-18 11:33:00,75.2,51.8,29.99,South,180,5.1,6.0,44,0.00,,,0.00,WUHU216HW,2013-06-18 18:33:00,
2013-06-18 11:34:00,75.1,51.6,29.98,SSE,158,4.9,6.0,44,0.00,,,0.00,WUHU216HW,2013-06-18 18:34:00,
2013-06-18 11:36:00,74.0,50.6,29.99,SSE,158,3.4,7.6,44,0.00,,,0.00,WUHU216HW,2013-06-18 18:36:00,
2013-06-18 11:37:00,73.4,50.7,29.98,SSE,158,3.4,7.6,45,0.00,,,0.00,WUHU216HW,2013-06-18 18:37:00,
2013-06-18 11:38:00,73.4,50.7,29.99,SE,135,2.9,7.6,45,0.00,,,0.00,WUHU216HW,2013-06-18 18:38:00,
2013-06-18 11:39:00,73.3,51.1,29.99,SE,135,2.0,7.6,46,0.00,,,0.00,WUHU216HW,2013-06-18 18:39:00,
2013-06-18 11:40:00,73.3,51.1,29.99,South,180,1.8,7.6,46,0.00,,,0.00,WUHU216HW,2013-06-18 18:40:00,
2013-06-18 11:41:00,73.4,51.8,29.99,ESE,113,0.9,7.6,47,0.00,,,0.00,WUHU216HW,2013-06-18 18:41:00,
2013-06-18 11:42:00,73.6,52.0,29.99,SSE,158,3.6,7.6,47,0.00,,,0.00,WUHU216HW,2013-06-18 18:42:00,
2013-06-18 11:43:00,73.8,51.0,29.99,SSE,158,4.7,7.6,45,0.00,,,0.00,WUHU216HW,2013-06-18 18:43:00,
2013-06-18 11:44:00,73.8,51.6,29.99,South,180,2.2,7.6,46,0.00,,,0.00,WUHU216HW,2013-06-18 18:44:00,
2013-06-18 11:45:00,73.6,51.5,29.98,South,180,3.8,7.6,46,0.00,,,0.00,WUHU216HW,2013-06-18 18:45:00,
2013-06-18 11:47:00,73.8,51.6,29.99,South,180,2.0,5.1,46,0.00,,,0.00,WUHU216HW,2013-06-18 18:47:00,
2013-06-18 11:48:00,73.8,51.6,29.99,South,180,1.3,5.1,46,0.00,,,0.00,WUHU216HW,2013-06-18 18:48:00,
2013-06-18 11:49:00,73.8,51.6,29.98,SE,135,1.3,5.1,46,0.00,,,0.00,WUHU216HW,2013-06-18 18:49:00,
2013-06-18 11:50:00,74.0,51.8,29.99,SE,135,1.1,5.1,46,0.00,,,0.00,WUHU216HW,2013-06-18 18:50:00,
2013-06-18 11:52:00,74.3,52.1,29.98,South,180,5.1,5.1,46,0.00,,,0.00,WUHU216HW,2013-06-18 18:52:00,
2013-06-18 11:53:00,74.5,51.7,29.98,South,180,4.3,5.1,45,0.00,,,0.00,WUHU216HW,2013-06-18 18:53:00,
2013-06-18 11:54:00,74.9,52.0,29.98,South,180,2.2,5.1,45,0.00,,,0.00,WUHU216HW,2013-06-18 18:54:00,
2013-06-18 11:55:00,75.2,51.8,29.99,SSW,203,2.2,5.1,44,0.00,,,0.00,WUHU216HW,2013-06-18 18:55:00,
2013-06-18 11:57:00,76.0,52.4,29.98,NE,45,2.5,5.1,44,0.00,,,0.00,WUHU216HW,2013-06-18 18:57:00,
2013-06-18 11:58:00,76.0,51.9,29.99,NE,45,2.5,5.1,43,0.00,,,0.00,WUHU216HW,2013-06-18 18:58:00,
2013-06-18 11:59:00,76.1,51.4,29.98,SE,135,2.9,5.8,42,0.00,,,0.00,WUHU216HW,2013-06-18 18:59:00,
2013-06-18 12:00:00,76.0,51.9,29.98,West,270,4.0,5.8,43,0.00,,,0.00,WUHU216HW,2013-06-18 19:00:00,
2013-06-18 12:03:00,76.3,52.1,29.98,SW,225,0.9,5.8,43,0.00,,,0.00,WUHU216HW,2013-06-18 19:03:00,
2013-06-18 12:05:00,77.2,51.8,29.98,South,180,5.1,5.8,41,0.00,,,0.00,WUHU216HW,2013-06-18 19:05:00,
2013-06-18 12:08:00,77.9,52.4,29.98,South,180,5.4,6.5,41,0.00,,,0.00,WUHU216HW,2013-06-18 19:08:00,
2013-06-18 12:10:00,77.9,51.8,29.98,South,180,5.4,6.5,40,0.00,,,0.00,WUHU216HW,2013-06-18 19:10:00,
2013-06-18 12:13:00,77.4,51.8,29.98,SSE,158,8.1,9.2,41,0.00,,,0.00,WUHU216HW,2013-06-18 19:13:00,
2013-06-18 12:14:00,76.9,52.0,29.98,SSE,158,3.8,9.2,42,0.00,,,0.00,WUHU216HW,2013-06-18 19:14:00,
2013-06-18 12:15:00,76.5,52.3,29.98,SE,135,2.5,9.2,43,0.00,,,0.00,WUHU216HW,2013-06-18 19:15:00,
2013-06-18 12:16:00,76.5,51.7,29.98,South,180,2.7,9.2,42,0.00,,,0.00,WUHU216HW,2013-06-18 19:16:00,
2013-06-18 12:18:00,76.5,51.7,29.98,ESE,113,3.1,9.2,42,0.00,,,0.00,WUHU216HW,2013-06-18 19:18:00,
2013-06-18 12:19:00,76.7,51.8,29.98,South,180,1.6,9.2,42,0.00,,,0.00,WUHU216HW,2013-06-18 19:19:00,
2013-06-18 12:20:00,76.7,52.5,29.98,South,180,6.7,9.2,43,0.00,,,0.00,WUHU216HW,2013-06-18 19:20:00,
2013-06-18 12:21:00,76.9,52.7,29.98,SSE,158,5.6,9.2,43,0.00,,,0.00,WUHU216HW,2013-06-18 19:21:00,
2013-06-18 12:23:00,76.9,52.0,29.98,South,180,2.9,8.5,42,0.00,,,0.00,WUHU216HW,2013-06-18 19:23:00,
2013-06-18 12:24:00,77.0,52.2,29.98,South,180,5.8,7.4,42,0.00,,,0.00,WUHU216HW,2013-06-18 19:24:00,
2013-06-18 12:26:00,77.2,52.9,29.98,SSE,158,5.4,7.4,43,0.00,,,0.00,WUHU216HW,2013-06-18 19:26:00,
2013-06-18 12:28:00,77.0,51.6,29.98,SSW,203,4.7,7.4,41,0.00,,,0.00,WUHU216HW,2013-06-18 19:28:00,
2013-06-18 12:29:00,77.0,51.6,29.98,South,180,3.4,7.4,41,0.00,,,0.00,WUHU216HW,2013-06-18 19:29:00,
2013-06-18 12:31:00,77.0,51.6,29.97,South,180,7.8,7.8,41,0.00,,,0.00,WUHU216HW,2013-06-18 19:31:00,
2013-06-18 12:33:00,77.2,51.8,29.97,South,180,5.4,8.7,41,0.00,,,0.00,WUHU216HW,2013-06-18 19:33:00,
2013-06-18 12:34:00,77.4,52.5,29.97,SE,135,4.3,8.7,42,0.00,,,0.00,WUHU216HW,2013-06-18 19:34:00,
2013-06-18 12:36:00,77.6,52.0,29.97,SSE,158,0.7,8.7,41,0.00,,,0.00,WUHU216HW,2013-06-18 19:36:00,
2013-06-18 12:39:00,78.3,52.1,29.97,South,180,7.6,8.7,40,0.00,,,0.00,WUHU216HW,2013-06-18 19:39:00,
2013-06-18 12:41:00,78.1,51.1,29.97,SSW,203,5.4,8.7,39,0.00,,,0.00,WUHU216HW,2013-06-18 19:41:00,
2013-06-18 12:44:00,78.1,51.1,29.97,SSE,158,6.3,7.6,39,0.00,,,0.00,WUHU216HW,2013-06-18 19:44:00,
2013-06-18 12:45:00,78.1,51.1,29.97,SSE,158,6.3,7.6,39,0.00,,,0.00,WUHU216HW,2013-06-18 19:45:00,
2013-06-18 12:46:00,77.9,51.8,29.97,WSW,248,2.5,8.7,40,0.00,,,0.00,WUHU216HW,2013-06-18 19:46:00,
2013-06-18 12:47:00,77.8,51.6,29.97,ENE,68,2.9,8.7,40,0.00,,,0.00,WUHU216HW,2013-06-18 19:47:00,
2013-06-18 12:49:00,78.3,52.1,29.97,South,180,2.0,8.7,40,0.00,,,0.00,WUHU216HW,2013-06-18 19:49:00,
2013-06-18 12:50:00,78.3,52.1,29.97,South,180,3.4,8.7,40,0.00,,,0.00,WUHU216HW,2013-06-18 19:50:00,
2013-06-18 12:51:00,78.8,51.0,29.97,SSE,158,7.6,8.7,38,0.00,,,0.00,WUHU216HW,2013-06-18 19:51:00,
2013-06-18 12:52:00,78.8,51.8,29.97,SSE,158,7.6,8.7,39,0.00,,,0.00,WUHU216HW,2013-06-18 19:52:00,
2013-06-18 12:55:00,78.1,51.1,29.97,West,270,0.4,8.7,39,0.00,,,0.00,WUHU216HW,2013-06-18 19:55:00,
2013-06-18 12:57:00,78.3,52.1,29.97,SE,135,1.1,7.6,40,0.00,,,0.00,WUHU216HW,2013-06-18 19:57:00,
2013-06-18 13:00:00,78.8,50.2,29.97,SSE,158,4.3,7.6,37,0.00,,,0.00,WUHU216HW,2013-06-18 20:00:00,
2013-06-18 13:02:00,79.0,51.9,29.97,SE,135,3.4,7.6,39,0.00,,,0.00,WUHU216HW,2013-06-18 20:02:00,
2013-06-18 13:05:00,79.2,51.3,29.97,SSE,158,7.2,7.2,38,0.00,,,0.00,WUHU216HW,2013-06-18 20:05:00,
2013-06-18 13:07:00,79.2,51.3,29.96,SSW,203,5.4,8.5,38,0.00,,,0.00,WUHU216HW,2013-06-18 20:07:00,
2013-06-18 13:10:00,78.5,50.7,29.97,South,180,4.9,8.5,38,0.00,,,0.00,WUHU216HW,2013-06-18 20:10:00,
2013-06-18 13:11:00,78.5,50.7,29.96,South,180,3.4,8.5,38,0.00,,,0.00,WUHU216HW,2013-06-18 20:11:00,
2013-06-18 13:12:00,78.5,50.7,29.96,South,180,7.2,8.5,38,0.00,,,0.00,WUHU216HW,2013-06-18 20:12:00,
2013-06-18 13:13:00,78.3,50.6,29.96,SE,135,3.4,8.5,38,0.00,,,0.00,WUHU216HW,2013-06-18 20:13:00,
2013-06-18 13:15:00,77.9,51.0,29.96,ESE,113,1.6,8.5,39,0.00,,,0.00,WUHU216HW,2013-06-18 20:15:00,
2013-06-18 13:16:00,77.9,50.2,29.97,SSE,158,2.0,8.5,38,0.00,,,0.00,WUHU216HW,2013-06-18 20:16:00,
2013-06-18 13:17:00,77.9,51.0,29.97,South,180,3.1,7.2,39,0.00,,,0.00,WUHU216HW,2013-06-18 20:17:00,
2013-06-18 13:18:00,77.9,51.0,29.97,South,180,6.7,7.2,39,0.00,,,0.00,WUHU216HW,2013-06-18 20:18:00,
2013-06-18 13:20:00,77.8,50.0,29.97,SSE,158,6.3,8.1,38,0.00,,,0.00,WUHU216HW,2013-06-18 20:20:00,
2013-06-18 13:21:00,77.8,50.9,29.97,SSW,203,5.6,8.1,39,0.00,,,0.00,WUHU216HW,2013-06-18 20:21:00,
2013-06-18 13:22:00,77.6,49.9,29.97,South,180,4.7,8.1,38,0.00,,,0.00,WUHU216HW,2013-06-18 20:22:00,
2013-06-18 13:23:00,77.6,50.7,29.97,South,180,6.0,8.1,39,0.00,,,0.00,WUHU216HW,2013-06-18 20:23:00,
2013-06-18 13:26:00,76.5,50.5,29.97,SSE,158,6.3,8.1,40,0.00,,,0.00,WUHU216HW,2013-06-18 20:26:00,
2013-06-18 13:28:00,76.1,50.1,29.97,South,180,8.5,8.5,40,0.00,,,0.00,WUHU216HW,2013-06-18 20:28:00,
2013-06-18 13:31:00,76.1,50.8,29.97,SSE,158,4.5,8.5,41,0.00,,,0.00,WUHU216HW,2013-06-18 20:31:00,
2013-06-18 13:33:00,76.1,50.1,29.97,SSE,158,1.8,8.5,40,0.00,,,0.00,WUHU216HW,2013-06-18 20:33:00,
2013-06-18 13:36:00,76.5,49.7,29.97,South,180,5.6,8.5,39,0.00,,,0.00,WUHU216HW,2013-06-18 20:36:00,
2013-06-18 13:38:00,76.5,50.5,29.97,South,180,3.4,6.9,40,0.00,,,0.00,WUHU216HW,2013-06-18 20:38:00,
2013-06-18 13:41:00,76.7,49.9,29.96,South,180,5.8,6.0,39,0.00,,,0.00,WUHU216HW,2013-06-18 20:41:00,
2013-06-18 13:43:00,76.7,49.9,29.97,SSW,203,1.6,6.3,39,0.00,,,0.00,WUHU216HW,2013-06-18 20:43:00,
2013-06-18 13:46:00,76.0,49.2,29.96,SE,135,4.0,8.1,39,0.00,,,0.00,WUHU216HW,2013-06-18 20:46:00,
2013-06-18 13:48:00,75.8,49.8,29.97,South,180,5.4,8.1,40,0.00,,,0.00,WUHU216HW,2013-06-18 20:48:00,
2013-06-18 13:49:00,75.6,49.7,29.97,South,180,5.4,8.1,40,0.00,,,0.00,WUHU216HW,2013-06-18 20:49:00,
2013-06-18 13:51:00,75.4,50.1,29.96,SSE,158,1.6,8.1,41,0.00,,,0.00,WUHU216HW,2013-06-18 20:51:00,
2013-06-18 13:53:00,75.4,50.1,29.97,East,90,1.8,8.1,41,0.00,,,0.00,WUHU216HW,2013-06-18 20:53:00,
2013-06-18 13:54:00,75.2,50.0,29.97,South,180,4.7,8.1,41,0.00,,,0.00,WUHU216HW,2013-06-18 20:54:00,
2013-06-18 13:57:00,74.3,49.2,29.96,SE,135,4.9,8.5,41,0.00,,,0.00,WUHU216HW,2013-06-18 20:57:00,
2013-06-18 13:58:00,74.0,50.0,29.97,SSE,158,3.6,8.5,43,0.00,,,0.00,WUHU216HW,2013-06-18 20:58:00,
2013-06-18 13:59:00,74.0,50.0,29.96,South,180,6.7,8.5,43,0.00,,,0.00,WUHU216HW,2013-06-18 20:59:00,
2013-06-18 14:02:00,74.2,49.6,29.96,SSE,158,6.9,8.5,42,0.00,,,0.00,WUHU216HW,2013-06-18 21:02:00,
2013-06-18 14:03:00,74.3,49.7,29.96,South,180,5.6,8.5,42,0.00,,,0.00,WUHU216HW,2013-06-18 21:03:00,
2013-06-18 14:04:00,74.5,50.5,29.96,South,180,4.7,8.5,43,0.00,,,0.00,WUHU216HW,2013-06-18 21:04:00,
2013-06-18 14:07:00,74.5,48.7,29.96,South,180,2.5,7.8,40,0.00,,,0.00,WUHU216HW,2013-06-18 21:07:00,
2013-06-18 14:08:00,74.5,49.3,29.96,South,180,3.6,7.8,41,0.00,,,0.00,WUHU216HW,2013-06-18 21:08:00,
2013-06-18 14:09:00,74.3,49.2,29.96,SSE,158,6.0,7.8,41,0.00,,,0.00,WUHU216HW,2013-06-18 21:09:00,
2013-06-18 14:12:00,74.2,49.6,29.96,ESE,113,1.1,6.0,42,0.00,,,0.00,WUHU216HW,2013-06-18 21:12:00,
2013-06-18 14:14:00,74.5,49.9,29.96,SSW,203,2.7,6.0,42,0.00,,,0.00,WUHU216HW,2013-06-18 21:14:00,
2013-06-18 14:15:00,75.2,51.1,29.96,SE,135,1.3,6.0,43,0.00,,,0.00,WUHU216HW,2013-06-18 21:15:00,
2013-06-18 14:17:00,76.0,50.6,29.96,South,180,2.5,6.0,41,0.00,,,0.00,WUHU216HW,2013-06-18 21:17:00,
2013-06-18 14:19:00,76.7,49.9,29.96,South,180,3.4,6.0,39,0.00,,,0.00,WUHU216HW,2013-06-18 21:19:00,
2013-06-18 14:20:00,77.0,50.9,29.96,WSW,248,1.1,5.6,40,0.00,,,0.00,WUHU216HW,2013-06-18 21:20:00,
2013-06-18 14:22:00,77.8,50.0,29.96,West,270,0.2,5.6,38,0.00,,,0.00,WUHU216HW,2013-06-18 21:22:00,
2013-06-18 14:24:00,78.1,49.6,29.96,SW,225,1.1,5.6,37,0.00,,,0.00,WUHU216HW,2013-06-18 21:24:00,
2013-06-18 14:25:00,78.5,50.7,29.96,SE,135,3.8,5.6,38,0.00,,,0.00,WUHU216HW,2013-06-18 21:25:00,
2013-06-18 14:27:00,79.0,49.6,29.96,SSW,203,0.9,5.8,36,0.00,,,0.00,WUHU216HW,2013-06-18 21:27:00,
2013-06-18 14:29:00,79.2,50.6,29.96,SSE,158,2.9,5.8,37,0.00,,,0.00,WUHU216HW,2013-06-18 21:29:00,
2013-06-18 14:30:00,79.4,50.8,29.96,SSE,158,3.4,5.8,37,0.00,,,0.00,WUHU216HW,2013-06-18 21:30:00,
2013-06-18 14:32:00,79.6,49.3,29.96,SE,135,4.0,7.2,35,0.00,,,0.00,WUHU216HW,2013-06-18 21:32:00,
2013-06-18 14:34:00,79.4,50.0,29.96,South,180,4.9,7.2,36,0.00,,,0.00,WUHU216HW,2013-06-18 21:34:00,
2013-06-18 14:35:00,79.4,50.8,29.96,SSE,158,5.4,7.2,37,0.00,,,0.00,WUHU216HW,2013-06-18 21:35:00,
2013-06-18 14:38:00,78.8,49.5,29.96,SSE,158,5.6,7.6,36,0.00,,,0.00,WUHU216HW,2013-06-18 21:38:00,
2013-06-18 14:39:00,77.9,49.4,29.95,SSE,158,3.4,7.6,37,0.00,,,0.00,WUHU216HW,2013-06-18 21:39:00,
2013-06-18 14:40:00,77.8,49.3,29.96,SE,135,1.8,7.6,37,0.00,,,0.00,WUHU216HW,2013-06-18 21:40:00,
2013-06-18 14:43:00,77.6,49.1,29.96,SSW,203,3.4,7.6,37,0.00,,,0.00,WUHU216HW,2013-06-18 21:43:00,
2013-06-18 14:44:00,77.8,47.8,29.95,East,90,0.4,7.6,35,0.00,,,0.00,WUHU216HW,2013-06-18 21:44:00,
2013-06-18 14:45:00,77.9,49.4,29.95,SSE,158,0.7,7.6,37,0.00,,,0.00,WUHU216HW,2013-06-18 21:45:00,
2013-06-18 14:46:00,78.1,48.9,29.95,SSW,203,1.3,7.6,36,0.00,,,0.00,WUHU216HW,2013-06-18 21:46:00,
2013-06-18 14:49:00,78.5,48.4,29.96,South,180,4.5,4.9,35,0.00,,,0.00,WUHU216HW,2013-06-18 21:49:00,
2013-06-18 14:50:00,78.5,47.6,29.95,South,180,4.0,5.4,34,0.00,,,0.00,WUHU216HW,2013-06-18 21:50:00,
2013-06-18 14:51:00,78.7,49.3,29.96,ESE,113,3.4,5.4,36,0.00,,,0.00,WUHU216HW,2013-06-18 21:51:00,
2013-06-18 14:54:00,79.4,49.1,29.95,WNW,293,1.1,5.4,35,0.00,,,0.00,WUHU216HW,2013-06-18 21:54:00,
2013-06-18 14:55:00,79.7,49.5,29.95,SSW,203,0.7,5.4,35,0.00,,,0.00,WUHU216HW,2013-06-18 21:55:00,
2013-06-18 14:56:00,80.1,49.1,29.95,South,180,4.7,5.4,34,0.00,,,0.00,WUHU216HW,2013-06-18 21:56:00,
2013-06-18 14:59:00,80.1,49.1,29.95,South,180,9.2,9.2,34,0.00,,,0.00,WUHU216HW,2013-06-18 21:59:00,
2013-06-18 15:00:00,79.9,49.7,29.95,South,180,7.6,9.2,35,0.00,,,0.00,WUHU216HW,2013-06-18 22:00:00,
2013-06-18 15:01:00,79.2,49.1,29.95,South,180,6.9,9.2,35,0.00,,,0.00,WUHU216HW,2013-06-18 22:01:00,
2013-06-18 15:04:00,78.1,48.9,29.95,SE,135,4.3,9.2,36,0.00,,,0.00,WUHU216HW,2013-06-18 22:04:00,
2013-06-18 15:05:00,77.9,48.0,29.95,SE,135,2.0,9.2,35,0.00,,,0.00,WUHU216HW,2013-06-18 22:05:00,
2013-06-18 15:06:00,77.9,49.4,29.95,SSW,203,2.7,9.2,37,0.00,,,0.00,WUHU216HW,2013-06-18 22:06:00,
2013-06-18 15:09:00,78.5,48.4,29.94,South,180,5.8,9.2,35,0.00,,,0.00,WUHU216HW,2013-06-18 22:09:00,
2013-06-18 15:10:00,78.5,46.1,29.94,South,180,5.4,9.2,32,0.00,,,0.00,WUHU216HW,2013-06-18 22:10:00,
2013-06-18 15:11:00,78.5,46.1,29.94,SSW,203,4.3,8.3,32,0.00,,,0.00,WUHU216HW,2013-06-18 22:11:00,
2013-06-18 15:12:00,78.5,46.8,29.94,South,180,2.7,8.3,33,0.00,,,0.00,WUHU216HW,2013-06-18 22:12:00,
2013-06-18 15:14:00,78.8,46.4,29.94,South,180,2.7,8.1,32,0.00,,,0.00,WUHU216HW,2013-06-18 22:14:00,
2013-06-18 15:15:00,79.0,47.4,29.94,South,180,2.5,8.1,33,0.00,,,0.00,WUHU216HW,2013-06-18 22:15:00,
2013-06-18 15:16:00,79.2,47.4,29.94,WSW,248,1.1,8.1,33,0.00,,,0.00,WUHU216HW,2013-06-18 22:16:00,
2013-06-18 15:17:00,79.4,47.6,29.94,South,180,2.2,8.1,33,0.00,,,0.00,WUHU216HW,2013-06-18 22:17:00,
2013-06-18 15:19:00,80.1,48.2,29.94,SSW,203,3.4,8.1,33,0.00,,,0.00,WUHU216HW,2013-06-18 22:19:00,
2013-06-18 15:21:00,80.3,47.7,29.94,South,180,5.8,5.8,32,0.00,,,0.00,WUHU216HW,2013-06-18 22:21:00,
2013-06-18 15:22:00,80.6,48.0,29.94,South,180,5.8,6.0,32,0.00,,,0.00,WUHU216HW,2013-06-18 22:22:00,
2013-06-18 15:23:00,80.6,47.3,29.94,SSW,203,5.6,6.0,31,0.00,,,0.00,WUHU216HW,2013-06-18 22:23:00,
2013-06-18 15:24:00,80.3,46.9,29.94,WSW,248,2.0,6.9,31,0.00,,,0.00,WUHU216HW,2013-06-18 22:24:00,
2013-06-18 15:26:00,80.3,46.1,29.94,SSE,158,5.4,6.9,30,0.00,,,0.00,WUHU216HW,2013-06-18 22:26:00,
2013-06-18 15:27:00,80.3,45.1,29.94,South,180,5.1,6.9,29,0.00,,,0.00,WUHU216HW,2013-06-18 22:27:00,
2013-06-18 15:28:00,80.3,46.1,29.94,SSE,158,4.0,6.9,30,0.00,,,0.00,WUHU216HW,2013-06-18 22:28:00,
2013-06-18 15:29:00,79.7,47.2,29.94,SSE,158,4.5,6.9,32,0.00,,,0.00,WUHU216HW,2013-06-18 22:29:00,
2013-06-18 15:31:00,79.6,47.0,29.94,SE,135,2.5,6.9,32,0.00,,,0.00,WUHU216HW,2013-06-18 22:31:00,
2013-06-18 15:32:00,79.6,47.0,29.94,SE,135,4.3,6.9,32,0.00,,,0.00,WUHU216HW,2013-06-18 22:32:00,
2013-06-18 15:33:00,79.6,47.0,29.94,SE,135,2.5,6.9,32,0.00,,,0.00,WUHU216HW,2013-06-18 22:33:00,
2013-06-18 15:35:00,79.6,46.3,29.94,SSE,158,3.8,6.7,31,0.00,,,0.00,WUHU216HW,2013-06-18 22:35:00,
2013-06-18 15:37:00,79.7,46.5,29.94,SSE,158,4.7,6.7,31,0.00,,,0.00,WUHU216HW,2013-06-18 22:37:00,
2013-06-18 15:38:00,79.9,46.5,29.94,SSE,158,3.6,6.3,31,0.00,,,0.00,WUHU216HW,2013-06-18 22:38:00,
2013-06-18 15:40:00,79.9,46.5,29.94,NE,45,3.1,5.8,31,0.00,,,0.00,WUHU216HW,2013-06-18 22:40:00,
2013-06-18 15:42:00,80.3,46.9,29.94,SSW,203,5.1,5.8,31,0.00,,,0.00,WUHU216HW,2013-06-18 22:42:00,
2013-06-18 15:43:00,80.5,47.8,29.94,SSW,203,4.0,5.8,32,0.00,,,0.00,WUHU216HW,2013-06-18 22:43:00,
2013-06-18 15:45:00,80.8,48.2,29.94,South,180,6.3,6.3,32,0.00,,,0.00,WUHU216HW,2013-06-18 22:45:00,
2013-06-18 15:47:00,80.8,47.3,29.94,South,180,3.1,7.4,31,0.00,,,0.00,WUHU216HW,2013-06-18 22:47:00,
2013-06-18 15:48:00,80.6,46.4,29.94,South,180,6.5,9.6,30,0.00,,,0.00,WUHU216HW,2013-06-18 22:48:00,
2013-06-18 15:50:00,80.5,49.4,29.94,SSE,158,7.2,9.6,34,0.00,,,0.00,WUHU216HW,2013-06-18 22:50:00,
2013-06-18 15:52:00,79.9,49.7,29.94,SE,135,3.6,9.6,35,0.00,,,0.00,WUHU216HW,2013-06-18 22:52:00,
2013-06-18 15:53:00,79.9,49.7,29.94,SE,135,3.6,9.6,35,0.00,,,0.00,WUHU216HW,2013-06-18 22:53:00,
2013-06-18 15:55:00,79.9,46.5,29.94,South,180,5.4,9.6,31,0.00,,,0.00,WUHU216HW,2013-06-18 22:55:00,
2013-06-18 15:57:00,80.3,46.9,29.93,WSW,248,2.2,9.6,31,0.00,,,0.00,WUHU216HW,2013-06-18 22:57:00,
2013-06-18 15:58:00,80.3,46.9,29.94,WSW,248,1.1,8.5,31,0.00,,,0.00,WUHU216HW,2013-06-18 22:58:00,
2013-06-18 15:59:00,80.5,47.8,29.94,West,270,0.2,8.5,32,0.00,,,0.00,WUHU216HW,2013-06-18 22:59:00,
2013-06-18 16:01:00,81.4,47.0,29.93,South,180,6.7,6.7,30,0.00,,,0.00,WUHU216HW,2013-06-18 23:01:00,
2013-06-18 16:02:00,81.9,45.4,29.94,SW,225,4.5,6.7,28,0.00,,,0.00,WUHU216HW,2013-06-18 23:02:00,
2013-06-18 16:03:00,81.9,47.4,29.94,SSE,158,6.3,6.7,30,0.00,,,0.00,WUHU216HW,2013-06-18 23:03:00,
2013-06-18 16:04:00,81.5,46.1,29.93,South,180,4.3,8.7,29,0.00,,,0.00,WUHU216HW,2013-06-18 23:04:00,
2013-06-18 16:06:00,81.2,45.8,29.94,SE,135,8.3,8.7,29,0.00,,,0.00,WUHU216HW,2013-06-18 23:06:00,
2013-06-18 16:07:00,80.8,45.5,29.93,WSW,248,1.1,8.7,29,0.00,,,0.00,WUHU216HW,2013-06-18 23:07:00,
2013-06-18 16:08:00,80.6,45.4,29.93,SSW,203,2.2,8.7,29,0.00,,,0.00,WUHU216HW,2013-06-18 23:08:00,
2013-06-18 16:09:00,80.6,45.4,29.93,SSW,203,2.2,8.7,29,0.00,,,0.00,WUHU216HW,2013-06-18 23:09:00,
2013-06-18 16:11:00,80.6,45.4,29.93,SSW,203,2.2,8.7,29,0.00,,,0.00,WUHU216HW,2013-06-18 23:11:00,
2013-06-18 16:13:00,81.0,46.7,29.93,SSE,158,5.4,8.7,30,0.00,,,0.00,WUHU216HW,2013-06-18 23:13:00,
2013-06-18 16:14:00,81.0,46.7,29.93,SSE,158,5.4,8.3,30,0.00,,,0.00,WUHU216HW,2013-06-18 23:14:00,
2013-06-18 16:15:00,81.0,46.7,29.93,SSE,158,5.4,8.3,30,0.00,,,0.00,WUHU216HW,2013-06-18 23:15:00,
2013-06-18 16:16:00,81.0,46.7,29.93,SSE,158,5.4,6.9,30,0.00,,,0.00,WUHU216HW,2013-06-18 23:16:00,
2013-06-18 16:18:00,81.4,47.0,29.93,SE,135,2.0,6.9,30,0.00,,,0.00,WUHU216HW,2013-06-18 23:18:00,
2013-06-18 16:19:00,81.4,47.0,29.93,SE,135,2.0,6.9,30,0.00,,,0.00,WUHU216HW,2013-06-18 23:19:00,
2013-06-18 16:20:00,81.4,47.0,29.93,SE,135,2.0,6.9,30,0.00,,,0.00,WUHU216HW,2013-06-18 23:20:00,
2013-06-18 16:21:00,81.5,47.2,29.93,South,180,6.9,6.9,30,0.00,,,0.00,WUHU216HW,2013-06-18 23:21:00,
2013-06-18 16:24:00,81.4,47.0,29.92,South,180,8.7,8.7,30,0.00,,,0.00,WUHU216HW,2013-06-18 23:24:00,
2013-06-18 16:25:00,81.4,47.0,29.92,South,180,8.7,8.7,30,0.00,,,0.00,WUHU216HW,2013-06-18 23:25:00,
2013-06-18 16:26:00,80.6,46.4,29.92,South,180,3.4,8.7,30,0.00,,,0.00,WUHU216HW,2013-06-18 23:26:00,
2013-06-18 16:29:00,81.4,47.8,29.92,SSE,158,3.8,8.7,31,0.00,,,0.00,WUHU216HW,2013-06-18 23:29:00,
2013-06-18 16:30:00,81.5,47.2,29.92,South,180,3.6,8.7,30,0.00,,,0.00,WUHU216HW,2013-06-18 23:30:00,
2013-06-18 16:31:00,81.5,47.2,29.92,South,180,3.6,8.7,30,0.00,,,0.00,WUHU216HW,2013-06-18 23:31:00,
2013-06-18 16:32:00,81.5,47.2,29.92,South,180,3.6,8.7,30,0.00,,,0.00,WUHU216HW,2013-06-18 23:32:00,
2013-06-18 16:34:00,81.7,47.4,29.92,SSE,158,7.4,8.7,30,0.00,,,0.00,WUHU216HW,2013-06-18 23:34:00,
2013-06-18 16:35:00,81.7,47.4,29.92,South,180,5.1,8.7,30,0.00,,,0.00,WUHU216HW,2013-06-18 23:35:00,
2013-06-18 16:36:00,81.7,46.3,29.92,SSW,203,3.4,7.4,29,0.00,,,0.00,WUHU216HW,2013-06-18 23:36:00,
2013-06-18 16:37:00,81.7,46.3,29.92,SSW,203,3.4,7.4,29,0.00,,,0.00,WUHU216HW,2013-06-18 23:37:00,
2013-06-18 16:39:00,81.7,46.3,29.92,SSE,158,8.9,8.9,29,0.00,,,0.00,WUHU216HW,2013-06-18 23:39:00,
2013-06-18 16:40:00,81.4,46.0,29.92,SSW,203,5.4,8.9,29,0.00,,,0.00,WUHU216HW,2013-06-18 23:40:00,
2013-06-18 16:41:00,81.4,46.0,29.92,SSW,203,3.4,8.9,29,0.00,,,0.00,WUHU216HW,2013-06-18 23:41:00,
2013-06-18 16:42:00,81.4,46.0,29.92,SW,225,1.6,8.9,29,0.00,,,0.00,WUHU216HW,2013-06-18 23:42:00,
2013-06-18 16:44:00,81.4,47.0,29.92,NW,315,1.8,8.9,30,0.00,,,0.00,WUHU216HW,2013-06-18 23:44:00,
2013-06-18 16:46:00,81.5,47.2,29.92,SSW,203,4.0,8.9,30,0.00,,,0.00,WUHU216HW,2013-06-18 23:46:00,
2013-06-18 16:47:00,81.4,46.0,29.92,SW,225,4.7,8.9,29,0.00,,,0.00,WUHU216HW,2013-06-18 23:47:00,
2013-06-18 16:48:00,81.4,46.0,29.92,SW,225,3.4,8.9,29,0.00,,,0.00,WUHU216HW,2013-06-18 23:48:00,
2013-06-18 16:49:00,80.6,45.4,29.92,SSW,203,6.5,7.6,29,0.00,,,0.00,WUHU216HW,2013-06-18 23:49:00,
2013-06-18 16:51:00,79.9,43.8,29.92,SW,225,5.6,7.6,28,0.00,,,0.00,WUHU216HW,2013-06-18 23:51:00,
2013-06-18 16:52:00,79.6,47.0,29.92,SW,225,6.3,7.6,32,0.00,,,0.00,WUHU216HW,2013-06-18 23:52:00,
2013-06-18 16:53:00,78.7,46.3,29.92,SSW,203,6.3,7.6,32,0.00,,,0.00,WUHU216HW,2013-06-18 23:53:00,
2013-06-18 16:54:00,78.3,45.9,29.92,SSW,203,4.0,7.6,32,0.00,,,0.00,WUHU216HW,2013-06-18 23:54:00,
2013-06-18 16:56:00,78.5,46.1,29.92,SSW,203,9.2,9.2,32,0.00,,,0.00,WUHU216HW,2013-06-18 23:56:00,
2013-06-18 16:57:00,78.7,44.6,29.92,SSW,203,7.6,9.8,30,0.00,,,0.00,WUHU216HW,2013-06-18 23:57:00,
2013-06-18 16:58:00,78.7,48.5,29.92,SW,225,9.2,9.8,35,0.00,,,0.00,WUHU216HW,2013-06-18 23:58:00,
2013-06-18 16:59:00,78.8,47.2,29.92,SSW,203,6.3,9.8,33,0.00,,,0.00,WUHU216HW,2013-06-18 23:59:00,
2013-06-18 17:01:00,79.2,46.7,29.92,SSW,203,7.8,9.8,32,0.00,,,0.00,WUHU216HW,2013-06-19 00:01:00,
2013-06-18 17:02:00,79.2,45.9,29.92,SSW,203,6.5,9.8,31,0.00,,,0.00,WUHU216HW,2013-06-19 00:02:00,
2013-06-18 17:03:00,79.4,47.6,29.92,SSW,203,5.1,9.8,33,0.00,,,0.00,WUHU216HW,2013-06-19 00:03:00,
2013-06-18 17:05:00,79.2,45.9,29.91,South,180,6.7,9.8,31,0.00,,,0.00,WUHU216HW,2013-06-19 00:05:00,
2013-06-18 17:07:00,78.7,42.6,29.92,WSW,248,7.4,9.2,28,0.00,,,0.00,WUHU216HW,2013-06-19 00:07:00,
2013-06-18 17:08:00,77.6,42.8,29.92,WSW,248,6.3,8.5,29,0.00,,,0.00,WUHU216HW,2013-06-19 00:08:00,
2013-06-18 17:10:00,77.4,42.7,29.91,SW,225,3.8,8.5,29,0.00,,,0.00,WUHU216HW,2013-06-19 00:10:00,
2013-06-18 17:12:00,77.0,44.9,29.91,SW,225,3.8,8.5,32,0.00,,,0.00,WUHU216HW,2013-06-19 00:12:00,
2013-06-18 17:13:00,77.2,45.8,29.91,SSW,203,9.6,9.6,33,0.00,,,0.00,WUHU216HW,2013-06-19 00:13:00,
2013-06-18 17:15:00,77.6,44.6,29.91,South,180,6.0,9.6,31,0.00,,,0.00,WUHU216HW,2013-06-19 00:15:00,
2013-06-18 17:17:00,77.9,46.4,29.91,SSW,203,7.8,9.6,33,0.00,,,0.00,WUHU216HW,2013-06-19 00:17:00,
2013-06-18 17:18:00,78.1,46.5,29.91,SSW,203,4.5,9.6,33,0.00,,,0.00,WUHU216HW,2013-06-19 00:18:00,
2013-06-18 17:19:00,78.1,46.5,29.91,South,180,8.7,9.6,33,0.00,,,0.00,WUHU216HW,2013-06-19 00:19:00,
2013-06-18 17:20:00,78.3,47.4,29.91,South,180,4.5,9.6,34,0.00,,,0.00,WUHU216HW,2013-06-19 00:20:00,
2013-06-18 17:22:00,78.8,47.2,29.91,SSW,203,3.6,9.6,33,0.00,,,0.00,WUHU216HW,2013-06-19 00:22:00,
2013-06-18 17:23:00,78.8,47.2,29.91,SSW,203,3.6,9.6,33,0.00,,,0.00,WUHU216HW,2013-06-19 00:23:00,
2013-06-18 17:24:00,79.2,47.4,29.91,South,180,7.8,8.7,33,0.00,,,0.00,WUHU216HW,2013-06-19 00:24:00,
2013-06-18 17:26:00,79.4,46.1,29.91,SSW,203,7.6,8.7,31,0.00,,,0.00,WUHU216HW,2013-06-19 00:26:00,
2013-06-18 17:28:00,79.4,46.1,29.91,SSW,203,7.6,8.7,31,0.00,,,0.00,WUHU216HW,2013-06-19 00:28:00,
2013-06-18 17:29:00,79.4,47.6,29.91,SSW,203,4.7,8.7,33,0.00,,,0.00,WUHU216HW,2013-06-19 00:29:00,
2013-06-18 17:31:00,79.2,47.4,29.91,SSW,203,7.6,9.8,33,0.00,,,0.00,WUHU216HW,2013-06-19 00:31:00,
2013-06-18 17:33:00,79.2,48.2,29.91,South,180,9.8,9.8,34,0.00,,,0.00,WUHU216HW,2013-06-19 00:33:00,
2013-06-18 17:34:00,79.2,48.2,29.91,South,180,9.8,9.8,34,0.00,,,0.00,WUHU216HW,2013-06-19 00:34:00,
2013-06-18 17:36:00,78.8,47.2,29.91,SSW,203,6.3,9.8,33,0.00,,,0.00,WUHU216HW,2013-06-19 00:36:00,
2013-06-18 17:38:00,79.0,47.4,29.91,SSW,203,3.8,9.8,33,0.00,,,0.00,WUHU216HW,2013-06-19 00:38:00,
2013-06-18 17:39:00,79.2,46.7,29.91,SSW,203,5.1,9.8,32,0.00,,,0.00,WUHU216HW,2013-06-19 00:39:00,
2013-06-18 17:41:00,79.2,46.7,29.91,SSW,203,5.1,9.8,32,0.00,,,0.00,WUHU216HW,2013-06-19 00:41:00,
2013-06-18 17:43:00,78.8,45.6,29.91,South,180,4.9,9.8,31,0.00,,,0.00,WUHU216HW,2013-06-19 00:43:00,
2013-06-18 17:44:00,78.8,46.4,29.91,SE,135,2.0,9.8,32,0.00,,,0.00,WUHU216HW,2013-06-19 00:44:00,
2013-06-18 17:47:00,78.8,45.6,29.91,South,180,2.7,6.0,31,0.00,,,0.00,WUHU216HW,2013-06-19 00:47:00,
2013-06-18 17:48:00,78.8,46.4,29.91,SSE,158,6.3,6.3,32,0.00,,,0.00,WUHU216HW,2013-06-19 00:48:00,
2013-06-18 17:49:00,78.8,47.2,29.91,South,180,9.2,9.2,33,0.00,,,0.00,WUHU216HW,2013-06-19 00:49:00,
2013-06-18 17:52:00,78.3,45.9,29.91,SSE,158,5.4,9.4,32,0.00,,,0.00,WUHU216HW,2013-06-19 00:52:00,
2013-06-18 17:53:00,78.1,46.5,29.91,SSE,158,2.5,9.4,33,0.00,,,0.00,WUHU216HW,2013-06-19 00:53:00,
2013-06-18 17:54:00,77.9,45.6,29.91,ESE,113,1.1,9.4,32,0.00,,,0.00,WUHU216HW,2013-06-19 00:54:00,
2013-06-18 17:55:00,77.9,45.6,29.91,SE,135,0.9,9.4,32,0.00,,,0.00,WUHU216HW,2013-06-19 00:55:00,
2013-06-18 17:57:00,77.9,45.6,29.91,SE,135,0.9,9.4,32,0.00,,,0.00,WUHU216HW,2013-06-19 00:57:00,
2013-06-18 17:58:00,78.3,45.9,29.91,South,180,4.0,9.4,32,0.00,,,0.00,WUHU216HW,2013-06-19 00:58:00,
2013-06-18 17:59:00,78.3,45.9,29.91,South,180,4.3,9.4,32,0.00,,,0.00,WUHU216HW,2013-06-19 00:59:00,
2013-06-18 18:00:00,78.5,46.1,29.91,SSW,203,2.5,9.4,32,0.00,,,0.00,WUHU216HW,2013-06-19 01:00:00,
2013-06-18 18:02:00,78.7,45.5,29.91,SSW,203,2.9,4.3,31,0.00,,,0.00,WUHU216HW,2013-06-19 01:02:00,
2013-06-18 18:03:00,78.7,45.5,29.91,SSW,203,2.9,4.3,31,0.00,,,0.00,WUHU216HW,2013-06-19 01:03:00,
2013-06-18 18:04:00,78.7,45.5,29.91,SSW,203,2.9,4.3,31,0.00,,,0.00,WUHU216HW,2013-06-19 01:04:00,
2013-06-18 18:05:00,78.7,45.5,29.91,SSW,203,2.9,4.3,31,0.00,,,0.00,WUHU216HW,2013-06-19 01:05:00,
2013-06-18 18:07:00,78.1,49.6,29.91,SSW,203,6.7,8.9,37,0.00,,,0.00,WUHU216HW,2013-06-19 01:07:00,
2013-06-18 18:08:00,78.1,47.4,29.91,SW,225,4.0,8.9,34,0.00,,,0.00,WUHU216HW,2013-06-19 01:08:00,
2013-06-18 18:09:00,78.1,47.4,29.91,SW,225,4.0,8.9,34,0.00,,,0.00,WUHU216HW,2013-06-19 01:09:00,
2013-06-18 18:10:00,78.1,47.4,29.91,SSW,203,2.9,8.9,34,0.00,,,0.00,WUHU216HW,2013-06-19 01:10:00,
2013-06-18 18:12:00,78.1,47.4,29.91,SW,225,2.2,8.9,34,0.00,,,0.00,WUHU216HW,2013-06-19 01:12:00,
2013-06-18 18:13:00,78.1,47.4,29.91,SW,225,2.2,8.9,34,0.00,,,0.00,WUHU216HW,2013-06-19 01:13:00,
2013-06-18 18:14:00,78.1,47.4,29.91,SW,225,2.2,8.9,34,0.00,,,0.00,WUHU216HW,2013-06-19 01:14:00,
2013-06-18 18:15:00,78.1,47.4,29.91,SW,225,2.2,8.9,34,0.00,,,0.00,WUHU216HW,2013-06-19 01:15:00,
2013-06-18 18:18:00,77.8,47.8,29.91,South,180,11.6,11.6,35,0.00,,,0.00,WUHU216HW,2013-06-19 01:18:00,
2013-06-18 18:19:00,77.6,47.6,29.91,SSE,158,11.4,12.1,35,0.00,,,0.00,WUHU216HW,2013-06-19 01:19:00,
2013-06-18 18:20:00,77.2,48.9,29.91,South,180,8.3,12.1,37,0.00,,,0.00,WUHU216HW,2013-06-19 01:20:00,
2013-06-18 18:23:00,77.2,48.9,29.91,South,180,8.3,12.1,37,0.00,,,0.00,WUHU216HW,2013-06-19 01:23:00,
2013-06-18 18:24:00,76.9,46.3,29.91,South,180,3.4,12.1,34,0.00,,,0.00,WUHU216HW,2013-06-19 01:24:00,
2013-06-18 18:25:00,76.9,46.3,29.91,SSE,158,4.7,12.1,34,0.00,,,0.00,WUHU216HW,2013-06-19 01:25:00,
2013-06-18 18:28:00,76.7,48.3,29.92,South,180,7.6,11.4,37,0.00,,,0.00,WUHU216HW,2013-06-19 01:28:00,
2013-06-18 18:29:00,76.7,46.8,29.92,South,180,9.2,9.2,35,0.00,,,0.00,WUHU216HW,2013-06-19 01:29:00,
2013-06-18 18:30:00,76.7,46.8,29.92,South,180,9.2,9.2,35,0.00,,,0.00,WUHU216HW,2013-06-19 01:30:00,
2013-06-18 18:33:00,76.3,46.5,29.92,SSW,203,4.0,9.2,35,0.00,,,0.00,WUHU216HW,2013-06-19 01:33:00,
2013-06-18 18:35:00,76.3,47.3,29.92,South,180,5.6,9.2,36,0.00,,,0.00,WUHU216HW,2013-06-19 01:35:00,
2013-06-18 18:38:00,76.1,46.4,29.92,South,180,7.4,9.2,35,0.00,,,0.00,WUHU216HW,2013-06-19 01:38:00,
2013-06-18 18:40:00,76.0,47.0,29.92,South,180,9.2,9.2,36,0.00,,,0.00,WUHU216HW,2013-06-19 01:40:00,
2013-06-18 18:41:00,76.0,47.0,29.92,South,180,9.2,9.2,36,0.00,,,0.00,WUHU216HW,2013-06-19 01:41:00,
2013-06-18 18:44:00,75.6,48.2,29.92,South,180,10.5,11.4,38,0.00,,,0.00,WUHU216HW,2013-06-19 01:44:00,
2013-06-18 18:45:00,75.4,48.7,29.92,South,180,10.3,11.4,39,0.00,,,0.00,WUHU216HW,2013-06-19 01:45:00,
2013-06-18 18:46:00,75.4,48.7,29.92,South,180,8.5,11.4,39,0.00,,,0.00,WUHU216HW,2013-06-19 01:46:00,
2013-06-18 18:49:00,75.2,48.6,29.92,South,180,9.2,11.4,39,0.00,,,0.00,WUHU216HW,2013-06-19 01:49:00,
2013-06-18 18:50:00,75.2,48.6,29.93,South,180,9.2,11.4,39,0.00,,,0.00,WUHU216HW,2013-06-19 01:50:00,
2013-06-18 18:51:00,75.1,50.4,29.93,South,180,16.6,16.6,42,0.00,,,0.00,WUHU216HW,2013-06-19 01:51:00,
2013-06-18 18:54:00,74.5,49.9,29.93,South,180,14.1,16.6,42,0.00,,,0.00,WUHU216HW,2013-06-19 01:54:00,
2013-06-18 18:55:00,74.5,49.9,29.93,South,180,14.1,16.6,42,0.00,,,0.00,WUHU216HW,2013-06-19 01:55:00,
2013-06-18 18:56:00,74.5,49.9,29.93,South,180,14.1,16.6,42,0.00,,,0.00,WUHU216HW,2013-06-19 01:56:00,
2013-06-18 18:59:00,73.8,50.4,29.93,SSW,203,12.5,16.6,44,0.00,,,0.00,WUHU216HW,2013-06-19 01:59:00,
2013-06-18 19:00:00,73.8,50.4,29.93,South,180,15.0,16.6,44,0.00,,,0.00,WUHU216HW,2013-06-19 02:00:00,
2013-06-18 19:01:00,73.8,49.9,29.93,SSE,158,13.6,16.6,43,0.00,,,0.00,WUHU216HW,2013-06-19 02:01:00,
2013-06-18 19:04:00,73.6,50.9,29.93,South,180,13.0,15.0,45,0.00,,,0.00,WUHU216HW,2013-06-19 02:04:00,
2013-06-18 19:05:00,73.1,49.8,29.93,South,180,15.0,15.0,44,0.00,,,0.00,WUHU216HW,2013-06-19 02:05:00,
2013-06-18 19:06:00,73.1,49.1,29.93,South,180,9.2,15.0,43,0.00,,,0.00,WUHU216HW,2013-06-19 02:06:00,
2013-06-18 19:09:00,73.1,49.1,29.93,South,180,9.2,15.0,43,0.00,,,0.00,WUHU216HW,2013-06-19 02:09:00,
2013-06-18 19:10:00,72.9,49.6,29.93,WSW,248,4.7,15.0,44,0.00,,,0.00,WUHU216HW,2013-06-19 02:10:00,
2013-06-18 19:11:00,72.9,49.6,29.93,WSW,248,4.7,15.0,44,0.00,,,0.00,WUHU216HW,2013-06-19 02:11:00,
2013-06-18 19:12:00,72.4,49.2,29.93,NW,315,3.6,15.0,44,0.00,,,0.00,WUHU216HW,2013-06-19 02:12:00,
2013-06-18 19:14:00,72.2,49.0,29.93,WNW,293,5.1,15.0,44,0.00,,,0.00,WUHU216HW,2013-06-19 02:14:00,
2013-06-18 19:16:00,72.2,49.0,29.94,WNW,293,5.1,9.2,44,0.00,,,0.00,WUHU216HW,2013-06-19 02:16:00,
2013-06-18 19:17:00,71.1,49.1,29.94,WSW,248,6.7,9.2,46,0.00,,,0.00,WUHU216HW,2013-06-19 02:17:00,
2013-06-18 19:19:00,70.7,48.9,29.94,West,270,5.4,9.2,46,0.00,,,0.00,WUHU216HW,2013-06-19 02:19:00,
2013-06-18 19:21:00,70.7,48.2,29.94,WSW,248,7.6,9.2,45,0.00,,,0.00,WUHU216HW,2013-06-19 02:21:00,
2013-06-18 19:22:00,70.9,49.0,29.94,WSW,248,6.7,9.2,46,0.00,,,0.00,WUHU216HW,2013-06-19 02:22:00,
2013-06-18 19:24:00,70.7,48.9,29.94,WSW,248,9.8,11.6,46,0.00,,,0.00,WUHU216HW,2013-06-19 02:24:00,
2013-06-18 19:26:00,70.6,49.2,29.94,WSW,248,6.9,11.6,47,0.00,,,0.00,WUHU216HW,2013-06-19 02:26:00,
2013-06-18 19:27:00,70.4,48.5,29.94,NW,315,3.4,11.6,46,0.00,,,0.00,WUHU216HW,2013-06-19 02:27:00,
2013-06-18 19:29:00,70.9,50.2,29.94,WNW,293,4.0,11.6,48,0.00,,,0.00,WUHU216HW,2013-06-19 02:29:00,
2013-06-18 19:31:00,70.9,50.2,29.94,NW,315,4.0,11.6,48,0.00,,,0.00,WUHU216HW,2013-06-19 02:31:00,
2013-06-18 19:32:00,70.9,50.2,29.94,NW,315,4.0,11.6,48,0.00,,,0.00,WUHU216HW,2013-06-19 02:32:00,
2013-06-18 19:35:00,71.5,51.3,29.94,NW,315,4.9,8.5,49,0.00,,,0.00,WUHU216HW,2013-06-19 02:35:00,
2013-06-18 19:36:00,71.5,51.8,29.93,WNW,293,6.5,6.5,50,0.00,,,0.00,WUHU216HW,2013-06-19 02:36:00,
2013-06-18 19:37:00,71.5,51.8,29.93,WNW,293,6.5,6.5,50,0.00,,,0.00,WUHU216HW,2013-06-19 02:37:00,
2013-06-18 19:40:00,70.2,53.3,29.94,NW,315,7.2,7.6,55,0.00,,,0.00,WUHU216HW,2013-06-19 02:40:00,
2013-06-18 19:41:00,69.8,51.9,29.94,NW,315,6.0,7.8,53,0.00,,,0.00,WUHU216HW,2013-06-19 02:41:00,
2013-06-18 19:42:00,69.3,51.4,29.94,NW,315,4.7,7.8,53,0.00,,,0.00,WUHU216HW,2013-06-19 02:42:00,
2013-06-18 19:43:00,69.3,51.4,29.94,NW,315,4.7,7.8,53,0.00,,,0.00,WUHU216HW,2013-06-19 02:43:00,
2013-06-18 19:45:00,68.9,51.6,29.94,WNW,293,4.9,7.8,54,0.00,,,0.00,WUHU216HW,2013-06-19 02:45:00,
2013-06-18 19:46:00,68.8,51.0,29.94,NW,315,5.4,7.8,53,0.00,,,0.00,WUHU216HW,2013-06-19 02:46:00,
2013-06-18 19:47:00,68.8,51.0,29.94,NW,315,4.0,7.8,53,0.00,,,0.00,WUHU216HW,2013-06-19 02:47:00,
2013-06-18 19:48:00,68.8,51.0,29.94,NW,315,3.8,7.8,53,0.00,,,0.00,WUHU216HW,2013-06-19 02:48:00,
2013-06-18 19:50:00,68.8,51.4,29.94,NW,315,5.4,6.9,54,0.00,,,0.00,WUHU216HW,2013-06-19 02:50:00,
2013-06-18 19:51:00,68.8,51.4,29.94,NW,315,5.4,6.9,54,0.00,,,0.00,WUHU216HW,2013-06-19 02:51:00,
2013-06-18 19:52:00,68.8,51.4,29.94,NW,315,5.4,6.3,54,0.00,,,0.00,WUHU216HW,2013-06-19 02:52:00,
2013-06-18 19:53:00,68.8,51.4,29.94,NW,315,5.4,6.3,54,0.00,,,0.00,WUHU216HW,2013-06-19 02:53:00,
2013-06-18 19:55:00,68.0,50.2,29.94,NW,315,3.6,5.4,53,0.00,,,0.00,WUHU216HW,2013-06-19 02:55:00,
2013-06-18 19:56:00,67.9,50.0,29.94,West,270,3.8,5.4,53,0.00,,,0.00,WUHU216HW,2013-06-19 02:56:00,
2013-06-18 19:57:00,67.7,50.0,29.94,NW,315,4.0,5.4,53,0.00,,,0.00,WUHU216HW,2013-06-19 02:57:00,
2013-06-18 19:58:00,67.7,50.4,29.94,WNW,293,4.5,5.4,54,0.00,,,0.00,WUHU216HW,2013-06-19 02:58:00,
2013-06-18 20:01:00,67.7,51.8,29.95,WNW,293,4.9,5.4,57,0.00,,,0.00,WUHU216HW,2013-06-19 03:01:00,
2013-06-18 20:02:00,67.5,51.7,29.95,NW,315,4.0,5.8,57,0.00,,,0.00,WUHU216HW,2013-06-19 03:02:00,
2013-06-18 20:03:00,67.5,51.2,29.95,NW,315,2.9,5.8,56,0.00,,,0.00,WUHU216HW,2013-06-19 03:03:00,
2013-06-18 20:06:00,67.7,52.8,29.95,NW,315,5.1,5.8,59,0.00,,,0.00,WUHU216HW,2013-06-19 03:06:00,
2013-06-18 20:08:00,67.5,52.7,29.95,NW,315,4.9,5.8,59,0.00,,,0.00,WUHU216HW,2013-06-19 03:08:00,
2013-06-18 20:09:00,67.5,52.7,29.95,NW,315,6.7,6.7,59,0.00,,,0.00,WUHU216HW,2013-06-19 03:09:00,
2013-06-18 20:11:00,67.1,51.8,29.95,NW,315,4.0,6.7,58,0.00,,,0.00,WUHU216HW,2013-06-19 03:11:00,
2013-06-18 20:12:00,67.0,52.2,29.95,NW,315,4.5,6.7,59,0.00,,,0.00,WUHU216HW,2013-06-19 03:12:00,
2013-06-18 20:13:00,67.0,51.7,29.95,NW,315,4.0,6.7,58,0.00,,,0.00,WUHU216HW,2013-06-19 03:13:00,
2013-06-18 20:14:00,67.0,51.7,29.95,NW,315,3.8,6.7,58,0.00,,,0.00,WUHU216HW,2013-06-19 03:14:00,
2013-06-18 20:17:00,67.0,52.7,29.95,NW,315,4.0,6.7,60,0.00,,,0.00,WUHU216HW,2013-06-19 03:17:00,
2013-06-18 20:18:00,67.1,52.4,29.95,NNW,338,4.5,6.7,59,0.00,,,0.00,WUHU216HW,2013-06-19 03:18:00,
2013-06-18 20:19:00,67.1,52.4,29.95,NW,315,4.5,6.7,59,0.00,,,0.00,WUHU216HW,2013-06-19 03:19:00,
2013-06-18 20:22:00,67.3,52.0,29.95,NW,315,4.3,4.7,58,0.00,,,0.00,WUHU216HW,2013-06-19 03:22:00,
2013-06-18 20:23:00,67.3,52.0,29.96,NNW,338,3.4,4.7,58,0.00,,,0.00,WUHU216HW,2013-06-19 03:23:00,
2013-06-18 20:24:00,67.5,52.2,29.96,NW,315,3.1,4.7,58,0.00,,,0.00,WUHU216HW,2013-06-19 03:24:00,
2013-06-18 20:27:00,67.5,53.2,29.96,NW,315,6.9,6.9,60,0.00,,,0.00,WUHU216HW,2013-06-19 03:27:00,
2013-06-18 20:28:00,67.5,53.2,29.96,NW,315,6.9,6.9,60,0.00,,,0.00,WUHU216HW,2013-06-19 03:28:00,
2013-06-18 20:29:00,67.1,51.8,29.96,NW,315,5.4,6.9,58,0.00,,,0.00,WUHU216HW,2013-06-19 03:29:00,
2013-06-18 20:32:00,66.6,52.4,29.96,NW,315,3.8,7.6,60,0.00,,,0.00,WUHU216HW,2013-06-19 03:32:00,
2013-06-18 20:33:00,66.4,51.2,29.96,NNW,338,4.3,7.6,58,0.00,,,0.00,WUHU216HW,2013-06-19 03:33:00,
2013-06-18 20:34:00,66.2,51.0,29.96,NW,315,2.9,7.6,58,0.00,,,0.00,WUHU216HW,2013-06-19 03:34:00,
2013-06-18 20:37:00,65.9,52.1,29.96,NW,315,5.1,7.6,61,0.00,,,0.00,WUHU216HW,2013-06-19 03:37:00,
2013-06-18 20:38:00,65.7,52.3,29.96,NW,315,5.6,7.6,62,0.00,,,0.00,WUHU216HW,2013-06-19 03:38:00,
2013-06-18 20:39:00,65.5,52.1,29.96,NW,315,6.3,7.6,62,0.00,,,0.00,WUHU216HW,2013-06-19 03:39:00,
2013-06-18 20:43:00,65.2,51.4,29.96,NW,315,3.6,6.5,61,0.00,,,0.00,WUHU216HW,2013-06-19 03:43:00,
2013-06-18 20:44:00,65.0,50.8,29.96,NW,315,3.6,6.5,60,0.00,,,0.00,WUHU216HW,2013-06-19 03:44:00,
2013-06-18 20:45:00,64.8,51.0,29.96,NW,315,4.9,6.5,61,0.00,,,0.00,WUHU216HW,2013-06-19 03:45:00,
2013-06-18 20:48:00,64.8,51.0,29.96,NW,315,5.1,6.3,61,0.00,,,0.00,WUHU216HW,2013-06-19 03:48:00,
2013-06-18 20:49:00,64.6,50.9,29.96,WNW,293,3.8,6.3,61,0.00,,,0.00,WUHU216HW,2013-06-19 03:49:00,
2013-06-18 20:50:00,64.4,51.9,29.96,NW,315,5.8,5.8,64,0.00,,,0.00,WUHU216HW,2013-06-19 03:50:00,
2013-06-18 20:53:00,64.3,52.2,29.96,NW,315,5.4,6.3,65,0.00,,,0.00,WUHU216HW,2013-06-19 03:53:00,
2013-06-18 20:54:00,64.3,52.7,29.96,NW,315,5.4,6.3,66,0.00,,,0.00,WUHU216HW,2013-06-19 03:54:00,
2013-06-18 20:55:00,64.3,51.8,29.96,NW,315,4.9,6.3,64,0.00,,,0.00,WUHU216HW,2013-06-19 03:55:00,
2013-06-18 20:58:00,63.9,51.5,29.97,NW,315,5.8,6.3,64,0.00,,,0.00,WUHU216HW,2013-06-19 03:58:00,
2013-06-18 20:59:00,63.9,52.8,29.97,NW,315,6.3,6.3,67,0.00,,,0.00,WUHU216HW,2013-06-19 03:59:00,
2013-06-18 21:00:00,63.9,52.3,29.96,NW,315,4.0,6.3,66,0.00,,,0.00,WUHU216HW,2013-06-19 04:00:00,
2013-06-18 21:01:00,63.7,51.7,29.96,NW,315,4.3,6.3,65,0.00,,,0.00,WUHU216HW,2013-06-19 04:01:00,
2013-06-18 21:06:00,63.7,52.1,29.97,NNW,338,4.0,6.3,66,0.00,,,0.00,WUHU216HW,2013-06-19 04:06:00,
2013-06-18 21:07:00,63.5,51.9,29.97,NW,315,4.0,6.3,66,0.00,,,0.00,WUHU216HW,2013-06-19 04:07:00,
2013-06-18 21:11:00,63.5,51.1,29.97,NW,315,2.5,5.1,64,0.00,,,0.00,WUHU216HW,2013-06-19 04:11:00,
2013-06-18 21:12:00,63.4,51.0,29.97,WNW,293,3.4,5.1,64,0.00,,,0.00,WUHU216HW,2013-06-19 04:12:00,
2013-06-18 21:16:00,63.2,50.8,29.97,North,0,2.7,4.5,64,0.00,,,0.00,WUHU216HW,2013-06-19 04:16:00,
2013-06-18 21:17:00,63.2,50.8,29.97,WNW,293,1.3,4.5,64,0.00,,,0.00,WUHU216HW,2013-06-19 04:17:00,
2013-06-18 21:21:00,63.0,50.6,29.97,North,0,1.3,3.4,64,0.00,,,0.00,WUHU216HW,2013-06-19 04:21:00,
2013-06-18 21:22:00,63.0,50.6,29.97,North,0,1.8,3.4,64,0.00,,,0.00,WUHU216HW,2013-06-19 04:22:00,
2013-06-18 21:23:00,63.0,50.6,29.97,NNE,23,2.5,3.4,64,0.00,,,0.00,WUHU216HW,2013-06-19 04:23:00,
2013-06-18 21:26:00,62.6,50.7,29.97,North,0,1.6,3.1,65,0.00,,,0.00,WUHU216HW,2013-06-19 04:26:00,
2013-06-18 21:27:00,62.6,50.2,29.97,NNE,23,2.5,3.1,64,0.00,,,0.00,WUHU216HW,2013-06-19 04:27:00,
2013-06-18 21:28:00,62.5,50.5,29.97,North,0,3.8,3.8,65,0.00,,,0.00,WUHU216HW,2013-06-19 04:28:00,
2013-06-18 21:31:00,62.3,50.3,29.97,NNW,338,2.0,3.8,65,0.00,,,0.00,WUHU216HW,2013-06-19 04:31:00,
2013-06-18 21:32:00,62.3,50.0,29.98,NW,315,1.6,3.8,64,0.00,,,0.00,WUHU216HW,2013-06-19 04:32:00,
2013-06-18 21:33:00,62.3,50.0,29.97,NW,315,0.7,3.8,64,0.00,,,0.00,WUHU216HW,2013-06-19 04:33:00,
2013-06-18 21:36:00,62.1,49.8,29.98,NNE,23,1.1,3.8,64,0.00,,,0.00,WUHU216HW,2013-06-19 04:36:00,
2013-06-18 21:37:00,61.9,49.6,29.98,North,0,1.8,3.8,64,0.00,,,0.00,WUHU216HW,2013-06-19 04:37:00,
2013-06-18 21:38:00,61.9,49.6,29.98,North,0,1.1,2.7,64,0.00,,,0.00,WUHU216HW,2013-06-19 04:38:00,
2013-06-18 21:42:00,61.7,49.4,29.98,North,0,1.6,2.2,64,0.00,,,0.00,WUHU216HW,2013-06-19 04:42:00,
2013-06-18 21:43:00,61.6,49.7,29.98,North,0,2.5,3.4,65,0.00,,,0.00,WUHU216HW,2013-06-19 04:43:00,
2013-06-18 21:47:00,61.6,49.7,29.98,North,0,1.3,3.4,65,0.00,,,0.00,WUHU216HW,2013-06-19 04:47:00,
2013-06-18 21:49:00,61.4,49.2,29.98,North,0,0.9,3.4,64,0.00,,,0.00,WUHU216HW,2013-06-19 04:49:00,
2013-06-18 21:52:00,61.4,49.2,29.98,NNE,23,0.7,3.4,64,0.00,,,0.00,WUHU216HW,2013-06-19 04:52:00,
2013-06-18 21:53:00,61.2,49.0,29.98,NE,45,0.9,3.4,64,0.00,,,0.00,WUHU216HW,2013-06-19 04:53:00,
2013-06-18 21:54:00,61.2,49.4,29.98,NE,45,0.7,2.5,65,0.00,,,0.00,WUHU216HW,2013-06-19 04:54:00,
2013-06-18 21:57:00,61.0,49.2,29.98,ESE,113,1.3,1.6,65,0.00,,,0.00,WUHU216HW,2013-06-19 04:57:00,
2013-06-18 21:58:00,61.0,49.2,29.98,SE,135,1.1,1.6,65,0.00,,,0.00,WUHU216HW,2013-06-19 04:58:00,
2013-06-18 21:59:00,61.0,49.2,29.98,ESE,113,1.1,1.6,65,0.00,,,0.00,WUHU216HW,2013-06-19 04:59:00,
2013-06-18 22:02:00,60.8,49.5,29.97,ENE,68,1.1,1.6,66,0.00,,,0.00,WUHU216HW,2013-06-19 05:02:00,
2013-06-18 22:03:00,60.8,49.5,29.98,ENE,68,1.1,1.6,66,0.00,,,0.00,WUHU216HW,2013-06-19 05:03:00,
2013-06-18 22:04:00,60.8,49.5,29.97,ENE,68,1.1,1.6,66,0.00,,,0.00,WUHU216HW,2013-06-19 05:04:00,
2013-06-18 22:08:00,60.7,49.3,29.97,ENE,68,0.4,1.1,66,0.00,,,0.00,WUHU216HW,2013-06-19 05:08:00,
2013-06-18 22:09:00,60.7,48.9,29.97,ESE,113,0.9,1.1,65,0.00,,,0.00,WUHU216HW,2013-06-19 05:09:00,
2013-06-18 22:13:00,60.5,49.5,29.97,SSW,203,1.8,3.8,67,0.00,,,0.00,WUHU216HW,2013-06-19 05:13:00,
2013-06-18 22:14:00,60.5,50.3,29.97,SSW,203,2.9,3.8,69,0.00,,,0.00,WUHU216HW,2013-06-19 05:14:00,
2013-06-18 22:18:00,60.8,49.9,29.98,South,180,6.3,6.3,67,0.00,,,0.00,WUHU216HW,2013-06-19 05:18:00,
2013-06-18 22:19:00,60.8,50.3,29.98,South,180,4.7,6.3,68,0.00,,,0.00,WUHU216HW,2013-06-19 05:19:00,
2013-06-18 22:23:00,61.4,51.2,29.98,South,180,6.5,8.3,69,0.00,,,0.00,WUHU216HW,2013-06-19 05:23:00,
2013-06-18 22:24:00,61.6,51.4,29.98,SSW,203,7.6,8.3,69,0.00,,,0.00,WUHU216HW,2013-06-19 05:24:00,
2013-06-18 22:28:00,61.7,51.5,29.97,SSW,203,7.2,8.7,69,0.00,,,0.00,WUHU216HW,2013-06-19 05:28:00,
2013-06-18 22:29:00,61.7,51.5,29.97,South,180,7.8,8.7,69,0.00,,,0.00,WUHU216HW,2013-06-19 05:29:00,
2013-06-18 22:30:00,61.7,51.5,29.97,South,180,6.3,8.7,69,0.00,,,0.00,WUHU216HW,2013-06-19 05:30:00,
2013-06-18 22:33:00,61.7,51.5,29.97,South,180,5.4,8.7,69,0.00,,,0.00,WUHU216HW,2013-06-19 05:33:00,
2013-06-18 22:34:00,61.7,51.1,29.97,SSE,158,5.4,8.7,68,0.00,,,0.00,WUHU216HW,2013-06-19 05:34:00,
2013-06-18 22:35:00,61.7,51.5,29.97,South,180,6.0,8.7,69,0.00,,,0.00,WUHU216HW,2013-06-19 05:35:00,
2013-06-18 22:38:00,61.7,50.7,29.97,South,180,4.3,7.8,67,0.00,,,0.00,WUHU216HW,2013-06-19 05:38:00,
2013-06-18 22:39:00,61.6,50.5,29.97,SSE,158,5.1,7.6,67,0.00,,,0.00,WUHU216HW,2013-06-19 05:39:00,
2013-06-18 22:40:00,61.6,50.9,29.97,South,180,4.3,7.6,68,0.00,,,0.00,WUHU216HW,2013-06-19 05:40:00,
2013-06-18 22:43:00,61.6,50.5,29.97,ENE,68,1.1,6.5,67,0.00,,,0.00,WUHU216HW,2013-06-19 05:43:00,
2013-06-18 22:45:00,61.4,50.4,29.97,ESE,113,0.7,6.5,67,0.00,,,0.00,WUHU216HW,2013-06-19 05:45:00,
2013-06-18 22:48:00,60.8,49.9,29.97,ENE,68,1.8,5.1,67,0.00,,,0.00,WUHU216HW,2013-06-19 05:48:00,
2013-06-18 22:50:00,60.8,49.9,29.97,SE,135,0.9,4.3,67,0.00,,,0.00,WUHU216HW,2013-06-19 05:50:00,
2013-06-18 22:53:00,60.3,49.3,29.97,SSE,158,2.5,2.7,67,0.00,,,0.00,WUHU216HW,2013-06-19 05:53:00,
2013-06-18 22:55:00,60.1,49.6,29.97,SSW,203,5.1,5.1,68,0.00,,,0.00,WUHU216HW,2013-06-19 05:55:00,
2013-06-18 22:56:00,60.1,50.0,29.97,South,180,3.6,5.1,69,0.00,,,0.00,WUHU216HW,2013-06-19 05:56:00,
2013-06-18 22:58:00,60.1,50.0,29.97,SSE,158,4.0,5.1,69,0.00,,,0.00,WUHU216HW,2013-06-19 05:58:00,
2013-06-18 23:00:00,60.1,50.0,29.97,SSW,203,2.7,5.1,69,0.00,,,0.00,WUHU216HW,2013-06-19 06:00:00,
2013-06-18 23:01:00,60.1,50.4,29.97,SSE,158,4.3,5.1,70,0.00,,,0.00,WUHU216HW,2013-06-19 06:01:00,
2013-06-18 23:03:00,59.9,49.8,29.98,SSW,203,2.5,5.1,69,0.00,,,0.00,WUHU216HW,2013-06-19 06:03:00,
2013-06-18 23:04:00,59.9,49.8,29.98,SSW,203,2.5,5.1,69,0.00,,,0.00,WUHU216HW,2013-06-19 06:04:00,
2013-06-18 23:05:00,59.9,49.8,29.98,East,90,1.1,5.1,69,0.00,,,0.00,WUHU216HW,2013-06-19 06:05:00,
2013-06-18 23:06:00,59.8,49.6,29.98,South,180,3.8,4.7,69,0.00,,,0.00,WUHU216HW,2013-06-19 06:06:00,
2013-06-18 23:08:00,59.8,49.6,29.98,South,180,1.1,4.9,69,0.00,,,0.00,WUHU216HW,2013-06-19 06:08:00,
2013-06-18 23:09:00,59.8,49.6,29.98,SSW,203,6.0,6.0,69,0.00,,,0.00,WUHU216HW,2013-06-19 06:09:00,
2013-06-18 23:10:00,59.8,50.0,29.98,SE,135,2.5,6.0,70,0.00,,,0.00,WUHU216HW,2013-06-19 06:10:00,
2013-06-18 23:12:00,59.6,49.9,29.98,ENE,68,1.8,6.0,70,0.00,,,0.00,WUHU216HW,2013-06-19 06:12:00,
2013-06-18 23:14:00,59.6,49.4,29.98,ENE,68,1.1,6.0,69,0.00,,,0.00,WUHU216HW,2013-06-19 06:14:00,
2013-06-18 23:15:00,59.6,49.4,29.98,SSE,158,0.7,6.0,69,0.00,,,0.00,WUHU216HW,2013-06-19 06:15:00,
2013-06-18 23:17:00,59.4,49.2,29.98,SSE,158,1.1,6.0,69,0.00,,,0.00,WUHU216HW,2013-06-19 06:17:00,
2013-06-18 23:19:00,59.4,49.7,29.98,SSE,158,2.0,6.0,70,0.00,,,0.00,WUHU216HW,2013-06-19 06:19:00,
2013-06-18 23:20:00,59.4,49.7,29.98,SE,135,4.9,4.9,70,0.00,,,0.00,WUHU216HW,2013-06-19 06:20:00,
2013-06-18 23:22:00,59.4,49.2,29.98,NE,45,2.5,4.9,69,0.00,,,0.00,WUHU216HW,2013-06-19 06:22:00,
2013-06-18 23:24:00,59.4,49.2,29.98,ENE,68,0.7,4.9,69,0.00,,,0.00,WUHU216HW,2013-06-19 06:24:00,
2013-06-18 23:25:00,59.4,49.2,29.98,ENE,68,0.2,4.9,69,0.00,,,0.00,WUHU216HW,2013-06-19 06:25:00,
2013-06-18 23:26:00,59.2,49.1,29.98,ENE,68,0.4,4.9,69,0.00,,,0.00,WUHU216HW,2013-06-19 06:26:00,
2013-06-18 23:28:00,59.2,49.1,29.98,East,90,0.2,4.9,69,0.00,,,0.00,WUHU216HW,2013-06-19 06:28:00,
2013-06-18 23:29:00,59.0,48.9,29.98,NE,45,0.9,4.9,69,0.00,,,0.00,WUHU216HW,2013-06-19 06:29:00,
2013-06-18 23:30:00,59.0,48.9,29.98,NE,45,0.0,4.9,69,0.00,,,0.00,WUHU216HW,2013-06-19 06:30:00,
2013-06-18 23:31:00,59.0,48.9,29.98,WSW,248,0.2,2.7,69,0.00,,,0.00,WUHU216HW,2013-06-19 06:31:00,
2013-06-18 23:33:00,58.9,48.7,29.98,SSE,158,1.1,2.0,69,0.00,,,0.00,WUHU216HW,2013-06-19 06:33:00,
2013-06-18 23:35:00,58.7,49.0,29.98,East,90,1.8,2.0,70,0.00,,,0.00,WUHU216HW,2013-06-19 06:35:00,
2013-06-18 23:36:00,58.7,48.5,29.98,SSE,158,0.4,2.5,69,0.00,,,0.00,WUHU216HW,2013-06-19 06:36:00,
2013-06-18 23:38:00,58.7,49.0,29.98,SE,135,1.3,2.5,70,0.00,,,0.00,WUHU216HW,2013-06-19 06:38:00,
2013-06-18 23:40:00,58.7,48.5,29.98,ESE,113,1.1,2.5,69,0.00,,,0.00,WUHU216HW,2013-06-19 06:40:00,
2013-06-18 23:41:00,58.5,48.3,29.98,East,90,0.0,2.5,69,0.00,,,0.00,WUHU216HW,2013-06-19 06:41:00,
2013-06-18 23:43:00,58.5,48.3,29.98,ENE,68,1.1,2.5,69,0.00,,,0.00,WUHU216HW,2013-06-19 06:43:00,
2013-06-18 23:45:00,58.3,48.2,29.98,ENE,68,1.1,2.5,69,0.00,,,0.00,WUHU216HW,2013-06-19 06:45:00,
2013-06-18 23:46:00,58.3,48.2,29.98,East,90,0.9,1.8,69,0.00,,,0.00,WUHU216HW,2013-06-19 06:46:00,
2013-06-18 23:48:00,58.1,48.0,29.98,ENE,68,0.0,1.1,69,0.00,,,0.00,WUHU216HW,2013-06-19 06:48:00,
2013-06-18 23:50:00,58.0,47.9,29.98,ESE,113,0.9,1.1,69,0.00,,,0.00,WUHU216HW,2013-06-19 06:50:00,
2013-06-18 23:51:00,58.0,47.9,29.98,East,90,0.4,1.1,69,0.00,,,0.00,WUHU216HW,2013-06-19 06:51:00,
2013-06-18 23:54:00,58.0,48.2,29.98,East,90,1.6,3.1,70,0.00,,,0.00,WUHU216HW,2013-06-19 06:54:00,
2013-06-18 23:55:00,58.0,48.6,29.98,SE,135,0.2,3.1,71,0.00,,,0.00,WUHU216HW,2013-06-19 06:55:00,
2013-06-18 23:56:00,58.0,49.0,29.99,SSE,158,0.7,3.1,72,0.00,,,0.00,WUHU216HW,2013-06-19 06:56:00,
2013-06-18 23:57:00,58.0,49.0,29.99,South,180,0.9,3.1,72,0.00,,,0.00,WUHU216HW,2013-06-19 06:57:00,
2013-06-18 23:59:00,58.0,48.6,29.98,SE,135,0.4,3.1,71,0.00,,,0.00,WUHU216HW,2013-06-19 06:59:00,